Observation data for Amarillo 7 South Southeast on 01/20/2019      Previous  Date  Next       Current Mesonet Observations  Soil Data  Daily Summary Page  Observations in Plain Language
KAM1 200600Z 18006KT M05/M07 A3026 RMK A01 T10451070  RH  083%=      5-min Rain = 0
KAM1 200601Z 18006KT M05/M07 A3026 RMK A01 T10461070  RH  083%=      5-min Rain = 0
KAM1 200602Z 18006KT M05/M07 A3026 RMK A01 T10461069  RH  084%=      5-min Rain = 0
KAM1 200603Z 18005KT M05/M07 A3026 RMK A01 T10461070  RH  084%=      5-min Rain = 0
KAM1 200604Z 18005KT M05/M07 A3026 RMK A01 T10471070  RH  084%=      5-min Rain = 0
KAM1 200605Z 18005KT M05/M07 A3026 RMK A01 T10471070  RH  084%=      5-min Rain = 0
KAM1 200606Z 17006KT M05/M07 A3026 RMK A01 T10481069  RH  085%=      5-min Rain = 0
KAM1 200607Z 17005KT M05/M07 A3026 RMK A01 T10461066  RH  086%=      5-min Rain = 0
KAM1 200608Z 18006KT M04/M06 A3026 RMK A01 T10441064  RH  087%=      5-min Rain = 0
KAM1 200609Z 18006KT M04/M06 A3026 RMK A01 T10431063  RH  086%=      5-min Rain = 0
KAM1 200610Z 17006KT M04/M06 A3026 RMK A01 T10421062  RH  086%=      5-min Rain = 0
KAM1 200611Z 17006KT M04/M06 A3026 RMK A01 T10401062  RH  085%=      5-min Rain = 0
KAM1 200612Z 17006KT M04/M06 A3026 RMK A01 T10391061  RH  084%=      5-min Rain = 0
KAM1 200613Z 17006KT M04/M06 A3026 RMK A01 T10381061  RH  084%=      5-min Rain = 0
KAM1 200614Z 17006KT M04/M06 A3026 RMK A01 T10371062  RH  083%=      5-min Rain = 0
KAM1 200615Z 17006KT M04/M06 A3026 RMK A01 T10381064  RH  082%=      5-min Rain = 0
KAM1 200616Z 17006KT M04/M07 A3025 RMK A01 T10391065  RH  082%=      5-min Rain = 0
KAM1 200617Z 17006KT M04/M07 A3025 RMK A01 T10401065  RH  082%=      5-min Rain = 0
KAM1 200618Z 17006KT M04/M07 A3025 RMK A01 T10401065  RH  083%=      5-min Rain = 0
KAM1 200619Z 17006KT M04/M07 A3025 RMK A01 T10401065  RH  083%=      5-min Rain = 0
KAM1 200620Z 17006KT M04/M06 A3025 RMK A01 T10401064  RH  083%=      5-min Rain = 0
KAM1 200621Z 17006KT M04/M07 A3025 RMK A01 T10401065  RH  083%=      5-min Rain = 0
KAM1 200622Z 18006KT M04/M07 A3025 RMK A01 T10421067  RH  083%=      5-min Rain = 0
KAM1 200623Z 18006KT M04/M07 A3025 RMK A01 T10441069  RH  082%=      5-min Rain = 0
KAM1 200624Z 18005KT M05/M07 A3025 RMK A01 T10461071  RH  082%=      5-min Rain = 0
KAM1 200625Z 18005KT M05/M07 A3026 RMK A01 T10481073  RH  082%=      5-min Rain = 0
KAM1 200626Z 18006KT M05/M07 A3026 RMK A01 T10491072  RH  084%=      5-min Rain = 0
KAM1 200627Z 18006KT M05/M07 A3026 RMK A01 T10491071  RH  085%=      5-min Rain = 0
KAM1 200628Z 18007KT M05/M07 A3026 RMK A01 T10501070  RH  086%=      5-min Rain = 0
KAM1 200629Z 18007KT M05/M07 A3026 RMK A01 T10501070  RH  086%=      5-min Rain = 0
KAM1 200630Z 18007KT M05/M07 A3026 RMK A01 T10501069  RH  087%=      5-min Rain = 0
KAM1 200631Z 18006KT M05/M07 A3026 RMK A01 T10501068  RH  087%=      5-min Rain = 0
KAM1 200632Z 18006KT M05/M07 A3026 RMK A01 T10501068  RH  087%=      5-min Rain = 0
KAM1 200633Z 18006KT M05/M07 A3026 RMK A01 T10501068  RH  087%=      5-min Rain = 0
KAM1 200634Z 17006KT M05/M07 A3026 RMK A01 T10501069  RH  087%=      5-min Rain = 0
KAM1 200635Z 17006KT M05/M07 A3026 RMK A01 T10501069  RH  087%=      5-min Rain = 0
KAM1 200636Z 18006KT M05/M07 A3026 RMK A01 T10501069  RH  087%=      5-min Rain = 0
KAM1 200637Z 18006KT M05/M07 A3026 RMK A01 T10491067  RH  087%=      5-min Rain = 0
KAM1 200638Z 18006KT M05/M07 A3026 RMK A01 T10481065  RH  088%=      5-min Rain = 0
KAM1 200639Z 18007KT M05/M06 A3026 RMK A01 T10461064  RH  087%=      5-min Rain = 0
KAM1 200640Z 17007KT M05/M07 A3026 RMK A01 T10461066  RH  086%=      5-min Rain = 0
KAM1 200641Z 17007KT M05/M07 A3026 RMK A01 T10461067  RH  085%=      5-min Rain = 0
KAM1 200642Z 17007KT M05/M07 A3026 RMK A01 T10451068  RH  084%=      5-min Rain = 0
KAM1 200643Z 17007KT M05/M07 A3026 RMK A01 T10451068  RH  084%=      5-min Rain = 0
KAM1 200644Z 17007KT M05/M07 A3026 RMK A01 T10451067  RH  084%=      5-min Rain = 0
KAM1 200645Z 18007KT M04/M07 A3026 RMK A01 T10431065  RH  085%=      5-min Rain = 0
KAM1 200646Z 18008KT M04/M06 A3026 RMK A01 T10421063  RH  085%=      5-min Rain = 0
KAM1 200647Z 18008KT M04/M06 A3026 RMK A01 T10411062  RH  085%=      5-min Rain = 0
KAM1 200648Z 18007KT M04/M06 A3026 RMK A01 T10401061  RH  085%=      5-min Rain = 0
KAM1 200649Z 18008KT M04/M06 A3026 RMK A01 T10381059  RH  085%=      5-min Rain = 0
KAM1 200650Z 17007KT M04/M06 A3026 RMK A01 T10371059  RH  085%=      5-min Rain = 0
KAM1 200651Z 18007KT M04/M06 A3026 RMK A01 T10371059  RH  085%=      5-min Rain = 0
KAM1 200652Z 18007KT M04/M06 A3026 RMK A01 T10361058  RH  085%=      5-min Rain = 0
KAM1 200653Z 18006KT M04/M06 A3026 RMK A01 T10351058  RH  084%=      5-min Rain = 0
KAM1 200654Z 18006KT M04/M06 A3026 RMK A01 T10351058  RH  084%=      5-min Rain = 0
KAM1 200655Z 18006KT M03/M06 A3026 RMK A01 T10341058  RH  083%=      5-min Rain = 0
KAM1 200656Z 18007KT M03/M06 A3026 RMK A01 T10341059  RH  083%=      5-min Rain = 0
KAM1 200657Z 18006KT M04/M06 A3026 RMK A01 T10351060  RH  083%=      5-min Rain = 0
KAM1 200658Z 18007KT M04/M06 A3026 RMK A01 T10351060  RH  083%=      5-min Rain = 0
KAM1 200659Z 18006KT M04/M06 A3026 RMK A01 T10351060  RH  083%=      5-min Rain = 0
KAM1 200700Z 18007KT M04/M06 A3026 RMK A01 T10351061  RH  083%=      5-min Rain = 0
KAM1 200701Z 18006KT M04/M06 A3026 RMK A01 T10361061  RH  083%=      5-min Rain = 0
KAM1 200702Z 18006KT M04/M06 A3026 RMK A01 T10361060  RH  083%=      5-min Rain = 0
KAM1 200703Z 18006KT M04/M06 A3026 RMK A01 T10351060  RH  083%=      5-min Rain = 0
KAM1 200704Z 18006KT M04/M06 A3026 RMK A01 T10351060  RH  083%=      5-min Rain = 0
KAM1 200705Z 18006KT M04/M06 A3026 RMK A01 T10351059  RH  083%=      5-min Rain = 0
KAM1 200706Z 18006KT M04/M06 A3026 RMK A01 T10351059  RH  083%=      5-min Rain = 0
KAM1 200707Z 18007KT M04/M06 A3026 RMK A01 T10351059  RH  083%=      5-min Rain = 0
KAM1 200708Z 18007KT M04/M06 A3026 RMK A01 T10351060  RH  083%=      5-min Rain = 0
KAM1 200709Z 18007KT M04/M06 A3026 RMK A01 T10351060  RH  083%=      5-min Rain = 0
KAM1 200710Z 18007KT M04/M06 A3026 RMK A01 T10361061  RH  083%=      5-min Rain = 0
KAM1 200711Z 18007KT M04/M06 A3026 RMK A01 T10361062  RH  083%=      5-min Rain = 0
KAM1 200712Z 18007KT M04/M06 A3026 RMK A01 T10371062  RH  083%=      5-min Rain = 0
KAM1 200713Z 18007KT M04/M06 A3026 RMK A01 T10381062  RH  083%=      5-min Rain = 0
KAM1 200714Z 18007KT M04/M06 A3026 RMK A01 T10381062  RH  083%=      5-min Rain = 0
KAM1 200715Z 18007KT M04/M06 A3026 RMK A01 T10381062  RH  084%=      5-min Rain = 0
KAM1 200716Z 19008KT M04/M06 A3026 RMK A01 T10381062  RH  084%=      5-min Rain = 0
KAM1 200717Z 18008KT M04/M06 A3026 RMK A01 T10391063  RH  083%=      5-min Rain = 0
KAM1 200718Z 18008KT M04/M06 A3026 RMK A01 T10391063  RH  084%=      5-min Rain = 0
KAM1 200719Z 19007KT M04/M06 A3026 RMK A01 T10391062  RH  084%=      5-min Rain = 0
KAM1 200720Z 19007KT M04/M06 A3026 RMK A01 T10391062  RH  084%=      5-min Rain = 0
KAM1 200721Z 19007KT M04/M06 A3026 RMK A01 T10391062  RH  084%=      5-min Rain = 0
KAM1 200722Z 19006KT M04/M06 A3026 RMK A01 T10401063  RH  084%=      5-min Rain = 0
KAM1 200723Z 19005KT M04/M06 A3026 RMK A01 T10401063  RH  084%=      5-min Rain = 0
KAM1 200724Z 19005KT M04/M06 A3026 RMK A01 T10411063  RH  084%=      5-min Rain = 0
KAM1 200725Z 19005KT M04/M06 A3026 RMK A01 T10411063  RH  085%=      5-min Rain = 0
KAM1 200726Z 18005KT M04/M06 A3026 RMK A01 T10411063  RH  085%=      5-min Rain = 0
KAM1 200727Z 19006KT M04/M06 A3026 RMK A01 T10411062  RH  085%=      5-min Rain = 0
KAM1 200728Z 19006KT M04/M06 A3026 RMK A01 T10401061  RH  085%=      5-min Rain = 0
KAM1 200729Z 19007KT M04/M06 A3026 RMK A01 T10401063  RH  084%=      5-min Rain = 0
KAM1 200730Z 19008KT M04/M07 A3026 RMK A01 T10411065  RH  083%=      5-min Rain = 0
KAM1 200731Z 19008KT M04/M07 A3026 RMK A01 T10431068  RH  083%=      5-min Rain = 0
KAM1 200732Z 19008KT M04/M07 A3026 RMK A01 T10441068  RH  084%=      5-min Rain = 0
KAM1 200733Z 19008KT M04/M07 A3026 RMK A01 T10441066  RH  085%=      5-min Rain = 0
KAM1 200734Z 19007KT M04/M06 A3026 RMK A01 T10431063  RH  086%=      5-min Rain = 0
KAM1 200735Z 18007KT M04/M06 A3026 RMK A01 T10411061  RH  086%=      5-min Rain = 0
KAM1 200736Z 19006KT M04/M06 A3026 RMK A01 T10401060  RH  086%=      5-min Rain = 0
KAM1 200737Z 19006KT M04/M06 A3027 RMK A01 T10391059  RH  086%=      5-min Rain = 0
KAM1 200738Z 19007KT M04/M06 A3027 RMK A01 T10381060  RH  085%=      5-min Rain = 0
KAM1 200739Z 19007KT M04/M06 A3027 RMK A01 T10381060  RH  085%=      5-min Rain = 0
KAM1 200740Z 19008KT M04/M06 A3027 RMK A01 T10381060  RH  085%=      5-min Rain = 0
KAM1 200741Z 19008KT M04/M06 A3027 RMK A01 T10381061  RH  084%=      5-min Rain = 0
KAM1 200742Z 19008KT M04/M06 A3027 RMK A01 T10381061  RH  084%=      5-min Rain = 0
KAM1 200743Z 19008KT M04/M06 A3027 RMK A01 T10381061  RH  084%=      5-min Rain = 0
KAM1 200744Z 19008KT M04/M06 A3027 RMK A01 T10381061  RH  084%=      5-min Rain = 0
KAM1 200745Z 19008KT M04/M06 A3027 RMK A01 T10371060  RH  084%=      5-min Rain = 0
KAM1 200746Z 19007KT M04/M06 A3026 RMK A01 T10371059  RH  084%=      5-min Rain = 0
KAM1 200747Z 18007KT M04/M06 A3026 RMK A01 T10371060  RH  084%=      5-min Rain = 0
KAM1 200748Z 18007KT M04/M06 A3026 RMK A01 T10371060  RH  084%=      5-min Rain = 0
KAM1 200749Z 18006KT M04/M06 A3026 RMK A01 T10371060  RH  084%=      5-min Rain = 0
KAM1 200750Z 18006KT M04/M06 A3026 RMK A01 T10371061  RH  084%=      5-min Rain = 0
KAM1 200751Z 18006KT M04/M06 A3026 RMK A01 T10381061  RH  084%=      5-min Rain = 0
KAM1 200752Z 18006KT M04/M06 A3026 RMK A01 T10381061  RH  084%=      5-min Rain = 0
KAM1 200753Z 18006KT M04/M06 A3026 RMK A01 T10381061  RH  084%=      5-min Rain = 0
KAM1 200754Z 17007KT M04/M06 A3026 RMK A01 T10391062  RH  084%=      5-min Rain = 0
KAM1 200755Z 17007KT M04/M06 A3026 RMK A01 T10391063  RH  084%=      5-min Rain = 0
KAM1 200756Z 17007KT M04/M06 A3026 RMK A01 T10391063  RH  084%=      5-min Rain = 0
KAM1 200757Z 17007KT M04/M06 A3025 RMK A01 T10391063  RH  084%=      5-min Rain = 0
KAM1 200758Z 17007KT M04/M06 A3025 RMK A01 T10391063  RH  084%=      5-min Rain = 0
KAM1 200759Z 17007KT M04/M06 A3025 RMK A01 T10401063  RH  084%=      5-min Rain = 0
KAM1 200800Z 17007KT M04/M06 A3025 RMK A01 T10401063  RH  084%=      5-min Rain = 0
KAM1 200801Z 17007KT M04/M06 A3025 RMK A01 T10401063  RH  084%=      5-min Rain = 0
KAM1 200802Z 17007KT M04/M06 A3025 RMK A01 T10411063  RH  084%=      5-min Rain = 0
KAM1 200803Z 18007KT M04/M06 A3025 RMK A01 T10411064  RH  084%=      5-min Rain = 0
KAM1 200804Z 18006KT M04/M06 A3025 RMK A01 T10421064  RH  084%=      5-min Rain = 0
KAM1 200805Z 18006KT M04/M07 A3025 RMK A01 T10431065  RH  084%=      5-min Rain = 0
KAM1 200806Z 18006KT M04/M07 A3025 RMK A01 T10441066  RH  085%=      5-min Rain = 0
KAM1 200807Z 18005KT M04/M07 A3025 RMK A01 T10441066  RH  085%=      5-min Rain = 0
KAM1 200808Z 17006KT M05/M07 A3025 RMK A01 T10451066  RH  085%=      5-min Rain = 0
KAM1 200809Z 17006KT M05/M07 A3025 RMK A01 T10451065  RH  086%=      5-min Rain = 0
KAM1 200810Z 17006KT M05/M07 A3025 RMK A01 T10451065  RH  086%=      5-min Rain = 0
KAM1 200811Z 16006KT M05/M07 A3025 RMK A01 T10451065  RH  086%=      5-min Rain = 0
KAM1 200812Z 16006KT M05/M07 A3025 RMK A01 T10451065  RH  086%=      5-min Rain = 0
KAM1 200813Z 16006KT M05/M07 A3025 RMK A01 T10461066  RH  086%=      5-min Rain = 0
KAM1 200814Z 17006KT M05/M07 A3025 RMK A01 T10461066  RH  086%=      5-min Rain = 0
KAM1 200815Z 18006KT M05/M07 A3025 RMK A01 T10461066  RH  086%=      5-min Rain = 0
KAM1 200816Z 18006KT M05/M07 A3025 RMK A01 T10451065  RH  086%=      5-min Rain = 0
KAM1 200817Z 18008KT M04/M06 A3025 RMK A01 T10441063  RH  087%=      5-min Rain = 0
KAM1 200818Z 18007KT M04/M06 A3025 RMK A01 T10421060  RH  087%=      5-min Rain = 0
KAM1 200819Z 17007KT M04/M06 A3025 RMK A01 T10391056  RH  088%=      5-min Rain = 0
KAM1 200820Z 17007KT M04/M05 A3025 RMK A01 T10371054  RH  088%=      5-min Rain = 0
KAM1 200821Z 17007KT M04/M05 A3025 RMK A01 T10351054  RH  087%=      5-min Rain = 0
KAM1 200822Z 17006KT M03/M05 A3026 RMK A01 T10341054  RH  086%=      5-min Rain = 0
KAM1 200823Z 17007KT M03/M05 A3026 RMK A01 T10331054  RH  086%=      5-min Rain = 0
KAM1 200824Z 17006KT M03/M06 A3026 RMK A01 T10331055  RH  085%=      5-min Rain = 0
KAM1 200825Z 17006KT M03/M06 A3026 RMK A01 T10331055  RH  085%=      5-min Rain = 0
KAM1 200826Z 17006KT M03/M06 A3026 RMK A01 T10331056  RH  084%=      5-min Rain = 0
KAM1 200827Z 16005KT M03/M06 A3026 RMK A01 T10331056  RH  084%=      5-min Rain = 0
KAM1 200828Z 16006KT M03/M06 A3026 RMK A01 T10341057  RH  084%=      5-min Rain = 0
KAM1 200829Z 16005KT M03/M06 A3026 RMK A01 T10341057  RH  084%=      5-min Rain = 0
KAM1 200830Z 17005KT M03/M06 A3026 RMK A01 T10341058  RH  084%=      5-min Rain = 0
KAM1 200831Z 17006KT M04/M06 A3026 RMK A01 T10351058  RH  084%=      5-min Rain = 0
KAM1 200832Z 17006KT M04/M06 A3026 RMK A01 T10351058  RH  084%=      5-min Rain = 0
KAM1 200833Z 17006KT M04/M06 A3026 RMK A01 T10361059  RH  084%=      5-min Rain = 0
KAM1 200834Z 16006KT M04/M06 A3026 RMK A01 T10371060  RH  084%=      5-min Rain = 0
KAM1 200835Z 17006KT M04/M06 A3026 RMK A01 T10371061  RH  084%=      5-min Rain = 0
KAM1 200836Z 17006KT M04/M06 A3026 RMK A01 T10381061  RH  084%=      5-min Rain = 0
KAM1 200837Z 17006KT M04/M06 A3026 RMK A01 T10381061  RH  084%=      5-min Rain = 0
KAM1 200838Z 16007KT M04/M06 A3026 RMK A01 T10391061  RH  085%=      5-min Rain = 0
KAM1 200839Z 16007KT M04/M06 A3026 RMK A01 T10391061  RH  085%=      5-min Rain = 0
KAM1 200840Z 16007KT M04/M06 A3026 RMK A01 T10391060  RH  085%=      5-min Rain = 0
KAM1 200841Z 17006KT M04/M06 A3026 RMK A01 T10391060  RH  085%=      5-min Rain = 0
KAM1 200842Z 18006KT M04/M06 A3026 RMK A01 T10391060  RH  085%=      5-min Rain = 0
KAM1 200843Z 18007KT M04/M06 A3026 RMK A01 T10391060  RH  085%=      5-min Rain = 0
KAM1 200844Z 17007KT M04/M06 A3026 RMK A01 T10401061  RH  085%=      5-min Rain = 0
KAM1 200845Z 17008KT M04/M06 A3026 RMK A01 T10401061  RH  085%=      5-min Rain = 0
KAM1 200846Z 17007KT M04/M06 A3025 RMK A01 T10411061  RH  086%=      5-min Rain = 0
KAM1 200847Z 17006KT M04/M06 A3026 RMK A01 T10411061  RH  086%=      5-min Rain = 0
KAM1 200848Z 17006KT M04/M06 A3026 RMK A01 T10411061  RH  086%=      5-min Rain = 0
KAM1 200849Z 17006KT M04/M06 A3026 RMK A01 T10411061  RH  086%=      5-min Rain = 0
KAM1 200850Z 17006KT M04/M06 A3025 RMK A01 T10411061  RH  086%=      5-min Rain = 0
KAM1 200851Z 17007KT M04/M06 A3025 RMK A01 T10421061  RH  086%=      5-min Rain = 0
KAM1 200852Z 17007KT M04/M06 A3025 RMK A01 T10411060  RH  087%=      5-min Rain = 0
KAM1 200853Z 17006KT M04/M06 A3025 RMK A01 T10411060  RH  087%=      5-min Rain = 0
KAM1 200854Z 17006KT M04/M06 A3025 RMK A01 T10411060  RH  087%=      5-min Rain = 0
KAM1 200855Z 17007KT M04/M06 A3026 RMK A01 T10421061  RH  086%=      5-min Rain = 0
KAM1 200856Z 17007KT M04/M06 A3025 RMK A01 T10431062  RH  086%=      5-min Rain = 0
KAM1 200857Z 17007KT M04/M06 A3025 RMK A01 T10431063  RH  086%=      5-min Rain = 0
KAM1 200858Z 18007KT M04/M06 A3025 RMK A01 T10441063  RH  087%=      5-min Rain = 0
KAM1 200859Z 17006KT M05/M06 A3025 RMK A01 T10451063  RH  087%=      5-min Rain = 0
KAM1 200900Z 18007KT M05/M06 A3025 RMK A01 T10451063  RH  087%=      5-min Rain = 0
KAM1 200901Z 18006KT M05/M06 A3025 RMK A01 T10451062  RH  088%=      5-min Rain = 0
KAM1 200902Z 18006KT M05/M06 A3025 RMK A01 T10451062  RH  088%=      5-min Rain = 0
KAM1 200903Z 18006KT M04/M06 A3025 RMK A01 T10441061  RH  088%=      5-min Rain = 0
KAM1 200904Z 17006KT M04/M06 A3026 RMK A01 T10441061  RH  088%=      5-min Rain = 0
KAM1 200905Z 16007KT M04/M06 A3026 RMK A01 T10441061  RH  088%=      5-min Rain = 0
KAM1 200906Z 17007KT M04/M06 A3026 RMK A01 T10441061  RH  088%=      5-min Rain = 0
KAM1 200907Z 17007KT M04/M06 A3026 RMK A01 T10441061  RH  088%=      5-min Rain = 0
KAM1 200908Z 17007KT M04/M06 A3026 RMK A01 T10441061  RH  088%=      5-min Rain = 0
KAM1 200909Z 17007KT M04/M06 A3026 RMK A01 T10431060  RH  088%=      5-min Rain = 0
KAM1 200910Z 17007KT M04/M06 A3026 RMK A01 T10431060  RH  088%=      5-min Rain = 0
KAM1 200911Z 17008KT M04/M06 A3026 RMK A01 T10431060  RH  088%=      5-min Rain = 0
KAM1 200912Z 17008KT M04/M06 A3026 RMK A01 T10431060  RH  088%=      5-min Rain = 0
KAM1 200913Z 17008KT M04/M06 A3026 RMK A01 T10421060  RH  088%=      5-min Rain = 0
KAM1 200914Z 18007KT M04/M06 A3026 RMK A01 T10421060  RH  087%=      5-min Rain = 0
KAM1 200915Z 17007KT M04/M06 A3026 RMK A01 T10421060  RH  087%=      5-min Rain = 0
KAM1 200916Z 17007KT M04/M06 A3025 RMK A01 T10421060  RH  087%=      5-min Rain = 0
KAM1 200917Z 17007KT M04/M06 A3026 RMK A01 T10421060  RH  087%=      5-min Rain = 0
KAM1 200918Z 17007KT M04/M06 A3026 RMK A01 T10421060  RH  087%=      5-min Rain = 0
KAM1 200919Z 17007KT M04/M06 A3026 RMK A01 T10421060  RH  087%=      5-min Rain = 0
KAM1 200920Z 17007KT M04/M06 A3026 RMK A01 T10431061  RH  087%=      5-min Rain = 0
KAM1 200921Z 17007KT M04/M06 A3026 RMK A01 T10431061  RH  087%=      5-min Rain = 0
KAM1 200922Z 17008KT M04/M06 A3026 RMK A01 T10431061  RH  087%=      5-min Rain = 0
KAM1 200923Z 18007KT M04/M06 A3026 RMK A01 T10431061  RH  087%=      5-min Rain = 0
KAM1 200924Z 18008KT M04/M06 A3026 RMK A01 T10421060  RH  087%=      5-min Rain = 0
KAM1 200925Z 18007KT M04/M06 A3026 RMK A01 T10421060  RH  087%=      5-min Rain = 0
KAM1 200926Z 18007KT M04/M06 A3026 RMK A01 T10431061  RH  087%=      5-min Rain = 0
KAM1 200927Z 17007KT M04/M06 A3026 RMK A01 T10421061  RH  087%=      5-min Rain = 0
KAM1 200928Z 17006KT M04/M06 A3026 RMK A01 T10431061  RH  087%=      5-min Rain = 0
KAM1 200929Z 17006KT M04/M06 A3026 RMK A01 T10431061  RH  087%=      5-min Rain = 0
KAM1 200930Z 16006KT M04/M06 A3026 RMK A01 T10441062  RH  087%=      5-min Rain = 0
KAM1 200931Z 16006KT M04/M06 A3026 RMK A01 T10441063  RH  087%=      5-min Rain = 0
KAM1 200932Z 16006KT M05/M06 A3026 RMK A01 T10451063  RH  087%=      5-min Rain = 0
KAM1 200933Z 16006KT M05/M06 A3026 RMK A01 T10461064  RH  087%=      5-min Rain = 0
KAM1 200934Z 17006KT M05/M06 A3026 RMK A01 T10461064  RH  087%=      5-min Rain = 0
KAM1 200935Z 17006KT M05/M06 A3026 RMK A01 T10471064  RH  088%=      5-min Rain = 0
KAM1 200936Z 18006KT M05/M07 A3026 RMK A01 T10481065  RH  088%=      5-min Rain = 0
KAM1 200937Z 18006KT M05/M07 A3026 RMK A01 T10481065  RH  088%=      5-min Rain = 0
KAM1 200938Z 18006KT M05/M07 A3026 RMK A01 T10491066  RH  088%=      5-min Rain = 0
KAM1 200939Z 18005KT M05/M07 A3026 RMK A01 T10501067  RH  088%=      5-min Rain = 0
KAM1 200940Z 17005KT M05/M07 A3026 RMK A01 T10501067  RH  088%=      5-min Rain = 0
KAM1 200941Z 17005KT M05/M07 A3026 RMK A01 T10511067  RH  089%=      5-min Rain = 0
KAM1 200942Z 17005KT M05/M07 A3026 RMK A01 T10511067  RH  089%=      5-min Rain = 0
KAM1 200943Z 17006KT M05/M07 A3026 RMK A01 T10511067  RH  089%=      5-min Rain = 0
KAM1 200944Z 18006KT M05/M07 A3026 RMK A01 T10511066  RH  089%=      5-min Rain = 0
KAM1 200945Z 18006KT M05/M07 A3026 RMK A01 T10521067  RH  089%=      5-min Rain = 0
KAM1 200946Z 18006KT M05/M07 A3025 RMK A01 T10521068  RH  089%=      5-min Rain = 0
KAM1 200947Z 18006KT M05/M07 A3025 RMK A01 T10531068  RH  089%=      5-min Rain = 0
KAM1 200948Z 18006KT M05/M07 A3025 RMK A01 T10531068  RH  089%=      5-min Rain = 0
KAM1 200949Z 17006KT M05/M07 A3025 RMK A01 T10531068  RH  089%=      5-min Rain = 0
KAM1 200950Z 17006KT M05/M07 A3025 RMK A01 T10531068  RH  090%=      5-min Rain = 0
KAM1 200951Z 17006KT M05/M07 A3025 RMK A01 T10531067  RH  090%=      5-min Rain = 0
KAM1 200952Z 16006KT M05/M07 A3025 RMK A01 T10531067  RH  090%=      5-min Rain = 0
KAM1 200953Z 16007KT M05/M07 A3025 RMK A01 T10531067  RH  090%=      5-min Rain = 0
KAM1 200954Z 17007KT M05/M07 A3025 RMK A01 T10531067  RH  090%=      5-min Rain = 0
KAM1 200955Z 17007KT M05/M07 A3025 RMK A01 T10521066  RH  090%=      5-min Rain = 0
KAM1 200956Z 18007KT M05/M06 A3025 RMK A01 T10511064  RH  091%=      5-min Rain = 0
KAM1 200957Z 19007KT M05/M06 A3025 RMK A01 T10491062  RH  091%=      5-min Rain = 0
KAM1 200958Z 19007KT M05/M06 A3025 RMK A01 T10481060  RH  091%=      5-min Rain = 0
KAM1 200959Z 19007KT M05/M06 A3024 RMK A01 T10461059  RH  091%=      5-min Rain = 0
KAM1 201000Z 19007KT M05/M06 A3024 RMK A01 T10451058  RH  091%=      5-min Rain = 0
KAM1 201001Z 19007KT M04/M06 A3024 RMK A01 T10441058  RH  090%=      5-min Rain = 0
KAM1 201002Z 19007KT M04/M06 A3024 RMK A01 T10431058  RH  090%=      5-min Rain = 0
KAM1 201003Z 18007KT M04/M06 A3024 RMK A01 T10431058  RH  089%=      5-min Rain = 0
KAM1 201004Z 18007KT M04/M06 A3024 RMK A01 T10421057  RH  089%=      5-min Rain = 0
KAM1 201005Z 17007KT M04/M06 A3024 RMK A01 T10421057  RH  089%=      5-min Rain = 0
KAM1 201006Z 17008KT M04/M06 A3024 RMK A01 T10411056  RH  089%=      5-min Rain = 0
KAM1 201007Z 17008KT M04/M06 A3024 RMK A01 T10401056  RH  089%=      5-min Rain = 0
KAM1 201008Z 17007KT M04/M06 A3024 RMK A01 T10401057  RH  088%=      5-min Rain = 0
KAM1 201009Z 18007KT M04/M06 A3024 RMK A01 T10401057  RH  088%=      5-min Rain = 0
KAM1 201010Z 18007KT M04/M06 A3024 RMK A01 T10401057  RH  088%=      5-min Rain = 0
KAM1 201011Z 19007KT M04/M06 A3024 RMK A01 T10391056  RH  088%=      5-min Rain = 0
KAM1 201012Z 19008KT M04/M06 A3024 RMK A01 T10391056  RH  088%=      5-min Rain = 0
KAM1 201013Z 19008KT M04/M06 A3024 RMK A01 T10381056  RH  087%=      5-min Rain = 0
KAM1 201014Z 19009KT M04/M06 A3024 RMK A01 T10381056  RH  087%=      5-min Rain = 0
KAM1 201015Z 19009KT M04/M06 A3024 RMK A01 T10371056  RH  087%=      5-min Rain = 0
KAM1 201016Z 19009KT M04/M06 A3024 RMK A01 T10371055  RH  087%=      5-min Rain = 0
KAM1 201017Z 19009KT M04/M06 A3024 RMK A01 T10361055  RH  087%=      5-min Rain = 0
KAM1 201018Z 19009KT M04/M06 A3024 RMK A01 T10361055  RH  086%=      5-min Rain = 0
KAM1 201019Z 19009KT M04/M06 A3024 RMK A01 T10351055  RH  086%=      5-min Rain = 0
KAM1 201020Z 19009KT M03/M05 A3024 RMK A01 T10341054  RH  086%=      5-min Rain = 0
KAM1 201021Z 19010KT M03/M05 A3024 RMK A01 T10331053  RH  086%=      5-min Rain = 0
KAM1 201022Z 19010KT M03/M05 A3024 RMK A01 T10321053  RH  086%=      5-min Rain = 0
KAM1 201023Z 19010KT M03/M05 A3024 RMK A01 T10311052  RH  085%=      5-min Rain = 0
KAM1 201024Z 19009KT M03/M05 A3024 RMK A01 T10311052  RH  085%=      5-min Rain = 0
KAM1 201025Z 19011KT M03/M05 A3024 RMK A01 T10301052  RH  085%=      5-min Rain = 0
KAM1 201026Z 19011KT M03/M05 A3024 RMK A01 T10291051  RH  085%=      5-min Rain = 0
KAM1 201027Z 19009KT M03/M05 A3024 RMK A01 T10281051  RH  084%=      5-min Rain = 0
KAM1 201028Z 19011KT M03/M05 A3024 RMK A01 T10271051  RH  084%=      5-min Rain = 0
KAM1 201029Z 19009KT M03/M05 A3024 RMK A01 T10271051  RH  084%=      5-min Rain = 0
KAM1 201030Z 20011KT M03/M05 A3024 RMK A01 T10271051  RH  083%=      5-min Rain = 0
KAM1 201031Z 20011KT M03/M05 A3024 RMK A01 T10271051  RH  083%=      5-min Rain = 0
KAM1 201032Z 20011KT M03/M05 A3024 RMK A01 T10261051  RH  083%=      5-min Rain = 0
KAM1 201033Z 20010KT M03/M05 A3024 RMK A01 T10251051  RH  083%=      5-min Rain = 0
KAM1 201034Z 20011KT M03/M05 A3024 RMK A01 T10251051  RH  083%=      5-min Rain = 0
KAM1 201035Z 20010KT M03/M05 A3024 RMK A01 T10261052  RH  083%=      5-min Rain = 0
KAM1 201036Z 19009KT M03/M05 A3024 RMK A01 T10261052  RH  083%=      5-min Rain = 0
KAM1 201037Z 19009KT M03/M05 A3024 RMK A01 T10261051  RH  083%=      5-min Rain = 0
KAM1 201038Z 20009KT M03/M05 A3024 RMK A01 T10261051  RH  083%=      5-min Rain = 0
KAM1 201039Z 20011KT M03/M05 A3023 RMK A01 T10261052  RH  083%=      5-min Rain = 0
KAM1 201040Z 20011KT M03/M05 A3023 RMK A01 T10251051  RH  083%=      5-min Rain = 0
KAM1 201041Z 19011KT M03/M05 A3023 RMK A01 T10251051  RH  083%=      5-min Rain = 0
KAM1 201042Z 19011KT M03/M05 A3023 RMK A01 T10251050  RH  083%=      5-min Rain = 0
KAM1 201043Z 19010KT M03/M05 A3023 RMK A01 T10251051  RH  082%=      5-min Rain = 0
KAM1 201044Z 20011KT M02/M05 A3023 RMK A01 T10241051  RH  082%=      5-min Rain = 0
KAM1 201045Z 20011KT M03/M05 A3023 RMK A01 T10251051  RH  082%=      5-min Rain = 0
KAM1 201046Z 20010KT M03/M05 A3023 RMK A01 T10251051  RH  082%=      5-min Rain = 0
KAM1 201047Z 20010KT M03/M05 A3023 RMK A01 T10251051  RH  083%=      5-min Rain = 0
KAM1 201048Z 20009KT M03/M05 A3023 RMK A01 T10251051  RH  083%=      5-min Rain = 0
KAM1 201049Z 20010KT M03/M05 A3023 RMK A01 T10251051  RH  083%=      5-min Rain = 0
KAM1 201050Z 20011KT M03/M05 A3023 RMK A01 T10251051  RH  083%=      5-min Rain = 0
KAM1 201051Z 20012KT M03/M05 A3023 RMK A01 T10251050  RH  083%=      5-min Rain = 0
KAM1 201052Z 19010KT M03/M05 A3023 RMK A01 T10251050  RH  083%=      5-min Rain = 0
KAM1 201053Z 19010KT M03/M05 A3023 RMK A01 T10251050  RH  083%=      5-min Rain = 0
KAM1 201054Z 20010KT M02/M05 A3023 RMK A01 T10241050  RH  083%=      5-min Rain = 0
KAM1 201055Z 19010KT M02/M05 A3023 RMK A01 T10241050  RH  082%=      5-min Rain = 0
KAM1 201056Z 19010KT M03/M05 A3023 RMK A01 T10251051  RH  082%=      5-min Rain = 0
KAM1 201057Z 19011KT M03/M05 A3023 RMK A01 T10261051  RH  083%=      5-min Rain = 0
KAM1 201058Z 19010KT M03/M05 A3022 RMK A01 T10261051  RH  083%=      5-min Rain = 0
KAM1 201059Z 19010KT M03/M05 A3022 RMK A01 T10261051  RH  083%=      5-min Rain = 0
KAM1 201100Z 19010KT M03/M05 A3022 RMK A01 T10261051  RH  083%=      5-min Rain = 0
KAM1 201101Z 19010KT M03/M05 A3022 RMK A01 T10251050  RH  083%=      5-min Rain = 0
KAM1 201102Z 19011KT M03/M05 A3022 RMK A01 T10261050  RH  083%=      5-min Rain = 0
KAM1 201103Z 19010KT M03/M05 A3022 RMK A01 T10261051  RH  083%=      5-min Rain = 0
KAM1 201104Z 19011KT M03/M05 A3022 RMK A01 T10251050  RH  083%=      5-min Rain = 0
KAM1 201105Z 19011KT M02/M05 A3022 RMK A01 T10241050  RH  083%=      5-min Rain = 0
KAM1 201106Z 19009KT M02/M05 A3022 RMK A01 T10241050  RH  082%=      5-min Rain = 0
KAM1 201107Z 19009KT M02/M05 A3022 RMK A01 T10241050  RH  082%=      5-min Rain = 0
KAM1 201108Z 19011KT M02/M05 A3022 RMK A01 T10241050  RH  082%=      5-min Rain = 0
KAM1 201109Z 20010KT M02/M05 A3022 RMK A01 T10241050  RH  082%=      5-min Rain = 0
KAM1 201110Z 19010KT M02/M05 A3022 RMK A01 T10241050  RH  082%=      5-min Rain = 0
KAM1 201111Z 19010KT M02/M05 A3022 RMK A01 T10241050  RH  082%=      5-min Rain = 0
KAM1 201112Z 19010KT M02/M05 A3022 RMK A01 T10241050  RH  082%=      5-min Rain = 0
KAM1 201113Z 19010KT M02/M05 A3022 RMK A01 T10241050  RH  082%=      5-min Rain = 0
KAM1 201114Z 19009KT M02/M05 A3022 RMK A01 T10241050  RH  082%=      5-min Rain = 0
KAM1 201115Z 20011KT M02/M05 A3022 RMK A01 T10231050  RH  082%=      5-min Rain = 0
KAM1 201116Z 19010KT M02/M05 A3022 RMK A01 T10241050  RH  082%=      5-min Rain = 0
KAM1 201117Z 19010KT M02/M05 A3022 RMK A01 T10241050  RH  082%=      5-min Rain = 0
KAM1 201118Z 19010KT M02/M05 A3022 RMK A01 T10241050  RH  082%=      5-min Rain = 0
KAM1 201119Z 19009KT M02/M05 A3022 RMK A01 T10241050  RH  082%=      5-min Rain = 0
KAM1 201120Z 19010KT M02/M05 A3022 RMK A01 T10241050  RH  082%=      5-min Rain = 0
KAM1 201121Z 19010KT M02/M05 A3022 RMK A01 T10241051  RH  082%=      5-min Rain = 0
KAM1 201122Z 19009KT M03/M05 A3022 RMK A01 T10251051  RH  082%=      5-min Rain = 0
KAM1 201123Z 20010KT M03/M05 A3021 RMK A01 T10261051  RH  083%=      5-min Rain = 0
KAM1 201124Z 20010KT M03/M05 A3021 RMK A01 T10261051  RH  083%=      5-min Rain = 0
KAM1 201125Z 20010KT M03/M05 A3021 RMK A01 T10251051  RH  083%=      5-min Rain = 0
KAM1 201126Z 20010KT M03/M05 A3021 RMK A01 T10261051  RH  083%=      5-min Rain = 0
KAM1 201127Z 19010KT M03/M05 A3021 RMK A01 T10261051  RH  083%=      5-min Rain = 0
KAM1 201128Z 19009KT M03/M05 A3021 RMK A01 T10261051  RH  083%=      5-min Rain = 0
KAM1 201129Z 19009KT M03/M05 A3021 RMK A01 T10261051  RH  083%=      5-min Rain = 0
KAM1 201130Z 19010KT M03/M05 A3021 RMK A01 T10271051  RH  083%=      5-min Rain = 0
KAM1 201131Z 19010KT M03/M05 A3021 RMK A01 T10261051  RH  083%=      5-min Rain = 0
KAM1 201132Z 19009KT M03/M05 A3021 RMK A01 T10261051  RH  083%=      5-min Rain = 0
KAM1 201133Z 19009KT M03/M05 A3021 RMK A01 T10261051  RH  083%=      5-min Rain = 0
KAM1 201134Z 19009KT M03/M05 A3021 RMK A01 T10261051  RH  083%=      5-min Rain = 0
KAM1 201135Z 20009KT M03/M05 A3021 RMK A01 T10261051  RH  083%=      5-min Rain = 0
KAM1 201136Z 20009KT M03/M05 A3021 RMK A01 T10261051  RH  083%=      5-min Rain = 0
KAM1 201137Z 20009KT M03/M05 A3021 RMK A01 T10261051  RH  083%=      5-min Rain = 0
KAM1 201138Z 20009KT M03/M05 A3021 RMK A01 T10261051  RH  083%=      5-min Rain = 0
KAM1 201139Z 20009KT M03/M05 A3021 RMK A01 T10261051  RH  083%=      5-min Rain = 0
KAM1 201140Z 20009KT M03/M05 A3021 RMK A01 T10261051  RH  083%=      5-min Rain = 0
KAM1 201141Z 20009KT M03/M05 A3021 RMK A01 T10261051  RH  083%=      5-min Rain = 0
KAM1 201142Z 19008KT M03/M05 A3021 RMK A01 T10251050  RH  083%=      5-min Rain = 0
KAM1 201143Z 19009KT M03/M05 A3021 RMK A01 T10261051  RH  083%=      5-min Rain = 0
KAM1 201144Z 19008KT M03/M05 A3021 RMK A01 T10261051  RH  083%=      5-min Rain = 0
KAM1 201145Z 19009KT M03/M05 A3021 RMK A01 T10261051  RH  083%=      5-min Rain = 0
KAM1 201146Z 19009KT M03/M05 A3021 RMK A01 T10271051  RH  083%=      5-min Rain = 0
KAM1 201147Z 19010KT M03/M05 A3021 RMK A01 T10271051  RH  083%=      5-min Rain = 0
KAM1 201148Z 19009KT M03/M05 A3021 RMK A01 T10271051  RH  083%=      5-min Rain = 0
KAM1 201149Z 20008KT M03/M05 A302 RMK A01 T10271051  RH  083%=      5-min Rain = 0
KAM1 201150Z 20010KT M03/M05 A302 RMK A01 T10271052  RH  083%=      5-min Rain = 0
KAM1 201151Z 20010KT M03/M05 A302 RMK A01 T10271052  RH  083%=      5-min Rain = 0
KAM1 201152Z 20009KT M03/M05 A302 RMK A01 T10271051  RH  083%=      5-min Rain = 0
KAM1 201153Z 20010KT M03/M05 A302 RMK A01 T10271051  RH  083%=      5-min Rain = 0
KAM1 201154Z 20011KT M03/M05 A302 RMK A01 T10261051  RH  083%=      5-min Rain = 0
KAM1 201155Z 20010KT M03/M05 A302 RMK A01 T10251050  RH  083%=      5-min Rain = 0
KAM1 201156Z 20010KT M03/M05 A302 RMK A01 T10251051  RH  082%=      5-min Rain = 0
KAM1 201157Z 20010KT M03/M05 A302 RMK A01 T10251051  RH  082%=      5-min Rain = 0
KAM1 201158Z 19010KT M03/M05 A302 RMK A01 T10251051  RH  082%=      5-min Rain = 0
KAM1 201159Z 19010KT M03/M05 A302 RMK A01 T10251051  RH  082%=      5-min Rain = 0
KAM1 201200Z 19010KT M03/M05 A302 RMK A01 T10251051  RH  082%=      5-min Rain = 0
KAM1 201201Z 19009KT M03/M05 A302 RMK A01 T10251051  RH  082%=      5-min Rain = 0
KAM1 201202Z 19008KT M03/M05 A302 RMK A01 T10251052  RH  082%=      5-min Rain = 0
KAM1 201203Z 19008KT M03/M05 A302 RMK A01 T10261052  RH  082%=      5-min Rain = 0
KAM1 201204Z 20008KT M03/M05 A302 RMK A01 T10261052  RH  082%=      5-min Rain = 0
KAM1 201205Z 19008KT M03/M05 A302 RMK A01 T10271053  RH  082%=      5-min Rain = 0
KAM1 201206Z 19008KT M03/M05 A302 RMK A01 T10271053  RH  082%=      5-min Rain = 0
KAM1 201207Z 19009KT M03/M05 A302 RMK A01 T10271053  RH  083%=      5-min Rain = 0
KAM1 201208Z 19008KT M03/M05 A302 RMK A01 T10281053  RH  083%=      5-min Rain = 0
KAM1 201209Z 19010KT M03/M05 A302 RMK A01 T10281053  RH  083%=      5-min Rain = 0
KAM1 201210Z 19009KT M03/M05 A302 RMK A01 T10271052  RH  083%=      5-min Rain = 0
KAM1 201211Z 19009KT M03/M05 A302 RMK A01 T10271052  RH  083%=      5-min Rain = 0
KAM1 201212Z 19009KT M03/M05 A302 RMK A01 T10271053  RH  083%=      5-min Rain = 0
KAM1 201213Z 19008KT M03/M05 A302 RMK A01 T10271053  RH  083%=      5-min Rain = 0
KAM1 201214Z 19008KT M03/M05 A302 RMK A01 T10271052  RH  083%=      5-min Rain = 0
KAM1 201215Z 19008KT M03/M05 A302 RMK A01 T10271052  RH  083%=      5-min Rain = 0
KAM1 201216Z 19008KT M03/M05 A302 RMK A01 T10271053  RH  083%=      5-min Rain = 0
KAM1 201217Z 19008G13KT M03/M05 A302 RMK A01 T10271053  RH  083%=      5-min Rain = 0
KAM1 201218Z 19009KT M03/M05 A302 RMK A01 T10271053  RH  083%=      5-min Rain = 0
KAM1 201219Z 19008KT M03/M05 A302 RMK A01 T10261052  RH  082%=      5-min Rain = 0
KAM1 201220Z 19009KT M03/M05 A302 RMK A01 T10261052  RH  082%=      5-min Rain = 0
KAM1 201221Z 19008KT M03/M05 A302 RMK A01 T10261052  RH  082%=      5-min Rain = 0
KAM1 201222Z 19008KT M03/M05 A302 RMK A01 T10261053  RH  082%=      5-min Rain = 0
KAM1 201223Z 19008KT M03/M05 A302 RMK A01 T10261053  RH  082%=      5-min Rain = 0
KAM1 201224Z 19008KT M03/M05 A302 RMK A01 T10271053  RH  082%=      5-min Rain = 0
KAM1 201225Z 19008KT M03/M05 A302 RMK A01 T10271053  RH  082%=      5-min Rain = 0
KAM1 201226Z 19008KT M03/M05 A302 RMK A01 T10271053  RH  082%=      5-min Rain = 0
KAM1 201227Z 19007KT M03/M05 A302 RMK A01 T10271053  RH  082%=      5-min Rain = 0
KAM1 201228Z 19008KT M03/M05 A302 RMK A01 T10281053  RH  083%=      5-min Rain = 0
KAM1 201229Z 20008KT M03/M05 A302 RMK A01 T10281053  RH  083%=      5-min Rain = 0
KAM1 201230Z 20008KT M03/M05 A302 RMK A01 T10281053  RH  083%=      5-min Rain = 0
KAM1 201231Z 20008KT M03/M05 A302 RMK A01 T10291054  RH  083%=      5-min Rain = 0
KAM1 201232Z 20009KT M03/M05 A302 RMK A01 T10291054  RH  083%=      5-min Rain = 0
KAM1 201233Z 21007KT M03/M05 A302 RMK A01 T10291053  RH  083%=      5-min Rain = 0
KAM1 201234Z 20007KT M03/M05 A302 RMK A01 T10291054  RH  083%=      5-min Rain = 0
KAM1 201235Z 20007KT M03/M05 A302 RMK A01 T10291054  RH  083%=      5-min Rain = 0
KAM1 201236Z 20007KT M03/M05 A302 RMK A01 T10291053  RH  083%=      5-min Rain = 0
KAM1 201237Z 20007KT M03/M05 A302 RMK A01 T10291053  RH  084%=      5-min Rain = 0
KAM1 201238Z 20006KT M03/M05 A302 RMK A01 T10291053  RH  084%=      5-min Rain = 0
KAM1 201239Z 20007KT M03/M05 A302 RMK A01 T10301053  RH  084%=      5-min Rain = 0
KAM1 201240Z 19007KT M03/M05 A3021 RMK A01 T10301053  RH  084%=      5-min Rain = 0
KAM1 201241Z 19007KT M03/M05 A3021 RMK A01 T10301054  RH  084%=      5-min Rain = 0
KAM1 201242Z 20008KT M03/M05 A3021 RMK A01 T10301053  RH  084%=      5-min Rain = 0
KAM1 201243Z 20008KT M03/M05 A3021 RMK A01 T10301053  RH  084%=      5-min Rain = 0
KAM1 201244Z 20008KT M03/M05 A302 RMK A01 T10301054  RH  084%=      5-min Rain = 0
KAM1 201245Z 20007KT M03/M05 A302 RMK A01 T10301054  RH  084%=      5-min Rain = 0
KAM1 201246Z 20008KT M03/M05 A302 RMK A01 T10301054  RH  084%=      5-min Rain = 0
KAM1 201247Z 20008KT M03/M05 A302 RMK A01 T10291053  RH  084%=      5-min Rain = 0
KAM1 201248Z 20008KT M03/M05 A302 RMK A01 T10291052  RH  084%=      5-min Rain = 0
KAM1 201249Z 20008KT M03/M05 A302 RMK A01 T10281053  RH  083%=      5-min Rain = 0
KAM1 201250Z 20008KT M03/M05 A302 RMK A01 T10281053  RH  083%=      5-min Rain = 0
KAM1 201251Z 20009KT M03/M05 A302 RMK A01 T10281053  RH  083%=      5-min Rain = 0
KAM1 201252Z 20009KT M03/M05 A302 RMK A01 T10281052  RH  083%=      5-min Rain = 0
KAM1 201253Z 20008KT M03/M05 A302 RMK A01 T10281052  RH  083%=      5-min Rain = 0
KAM1 201254Z 20010KT M03/M05 A302 RMK A01 T10271053  RH  083%=      5-min Rain = 0
KAM1 201255Z 20009KT M03/M05 A302 RMK A01 T10271053  RH  083%=      5-min Rain = 0
KAM1 201256Z 20009KT M03/M05 A302 RMK A01 T10271052  RH  083%=      5-min Rain = 0
KAM1 201257Z 20009KT M03/M05 A302 RMK A01 T10271053  RH  083%=      5-min Rain = 0
KAM1 201258Z 19009KT M03/M05 A302 RMK A01 T10271053  RH  083%=      5-min Rain = 0
KAM1 201259Z 20009KT M03/M05 A302 RMK A01 T10271053  RH  083%=      5-min Rain = 0
KAM1 201300Z 20008KT M03/M05 A302 RMK A01 T10271052  RH  083%=      5-min Rain = 0
KAM1 201301Z 20008KT M03/M05 A302 RMK A01 T10271053  RH  083%=      5-min Rain = 0
KAM1 201302Z 20008KT M03/M05 A302 RMK A01 T10281053  RH  083%=      5-min Rain = 0
KAM1 201303Z 21008KT M03/M05 A302 RMK A01 T10271053  RH  083%=      5-min Rain = 0
KAM1 201304Z 20009KT M03/M05 A302 RMK A01 T10271053  RH  083%=      5-min Rain = 0
KAM1 201305Z 20009KT M03/M05 A302 RMK A01 T10271052  RH  083%=      5-min Rain = 0
KAM1 201306Z 20008KT M03/M05 A3021 RMK A01 T10261052  RH  083%=      5-min Rain = 0
KAM1 201307Z 20008KT M03/M05 A3021 RMK A01 T10261052  RH  082%=      5-min Rain = 0
KAM1 201308Z 20008KT M03/M05 A3021 RMK A01 T10261052  RH  082%=      5-min Rain = 0
KAM1 201309Z 20008KT M03/M05 A3021 RMK A01 T10271053  RH  082%=      5-min Rain = 0
KAM1 201310Z 20008KT M03/M05 A3021 RMK A01 T10271053  RH  083%=      5-min Rain = 0
KAM1 201311Z 20008KT M03/M05 A3021 RMK A01 T10271053  RH  083%=      5-min Rain = 0
KAM1 201312Z 20008KT M03/M05 A3021 RMK A01 T10271053  RH  083%=      5-min Rain = 0
KAM1 201313Z 20008KT M03/M05 A3021 RMK A01 T10281053  RH  083%=      5-min Rain = 0
KAM1 201314Z 20008KT M03/M05 A3021 RMK A01 T10281053  RH  083%=      5-min Rain = 0
KAM1 201315Z 20008KT M03/M05 A3021 RMK A01 T10281053  RH  083%=      5-min Rain = 0
KAM1 201316Z 20007KT M03/M05 A3021 RMK A01 T10281054  RH  083%=      5-min Rain = 0
KAM1 201317Z 20008KT M03/M05 A3021 RMK A01 T10291054  RH  083%=      5-min Rain = 0
KAM1 201318Z 19008KT M03/M05 A3021 RMK A01 T10291054  RH  083%=      5-min Rain = 0
KAM1 201319Z 20009KT M03/M05 A3021 RMK A01 T10291054  RH  083%=      5-min Rain = 0
KAM1 201320Z 20009KT M03/M05 A3021 RMK A01 T10301054  RH  083%=      5-min Rain = 0
KAM1 201321Z 20008KT M03/M05 A3021 RMK A01 T10291054  RH  083%=      5-min Rain = 0
KAM1 201322Z 19009KT M03/M05 A3021 RMK A01 T10301054  RH  083%=      5-min Rain = 0
KAM1 201323Z 20008KT M03/M05 A3021 RMK A01 T10301054  RH  084%=      5-min Rain = 0
KAM1 201324Z 19007KT M03/M05 A3021 RMK A01 T10301054  RH  084%=      5-min Rain = 0
KAM1 201325Z 19008KT M03/M05 A3021 RMK A01 T10301054  RH  084%=      5-min Rain = 0
KAM1 201326Z 19008KT M03/M05 A3021 RMK A01 T10311054  RH  084%=      5-min Rain = 0
KAM1 201327Z 19008KT M03/M06 A3021 RMK A01 T10311055  RH  084%=      5-min Rain = 0
KAM1 201328Z 19008KT M03/M06 A3021 RMK A01 T10321055  RH  084%=      5-min Rain = 0
KAM1 201329Z 19009KT M03/M06 A3021 RMK A01 T10321055  RH  084%=      5-min Rain = 0
KAM1 201330Z 19009KT M03/M06 A3021 RMK A01 T10331055  RH  085%=      5-min Rain = 0
KAM1 201331Z 19009KT M03/M05 A3021 RMK A01 T10321054  RH  085%=      5-min Rain = 0
KAM1 201332Z 19009KT M03/M05 A3021 RMK A01 T10321054  RH  084%=      5-min Rain = 0
KAM1 201333Z 18009KT M03/M06 A3021 RMK A01 T10321055  RH  084%=      5-min Rain = 0
KAM1 201334Z 18008KT M03/M06 A3021 RMK A01 T10321055  RH  084%=      5-min Rain = 0
KAM1 201335Z 18008KT M03/M05 A3021 RMK A01 T10321054  RH  085%=      5-min Rain = 0
KAM1 201336Z 19008KT M03/M06 A3021 RMK A01 T10321055  RH  085%=      5-min Rain = 0
KAM1 201337Z 19008KT M03/M06 A3021 RMK A01 T10331055  RH  085%=      5-min Rain = 0
KAM1 201338Z 19008KT M03/M06 A3021 RMK A01 T10331055  RH  085%=      5-min Rain = 0
KAM1 201339Z 19008KT M03/M06 A3021 RMK A01 T10331055  RH  085%=      5-min Rain = 0
KAM1 201340Z 19008KT M03/M06 A3021 RMK A01 T10331055  RH  085%=      5-min Rain = 0
KAM1 201341Z 19007KT M03/M06 A3021 RMK A01 T10331055  RH  085%=      5-min Rain = 0
KAM1 201342Z 19007KT M03/M06 A3021 RMK A01 T10331055  RH  085%=      5-min Rain = 0
KAM1 201343Z 19007KT M03/M06 A3021 RMK A01 T10341055  RH  085%=      5-min Rain = 0
KAM1 201344Z 19007KT M03/M06 A3021 RMK A01 T10341055  RH  085%=      5-min Rain = 0
KAM1 201345Z 19007KT M03/M06 A3021 RMK A01 T10341055  RH  085%=      5-min Rain = 0
KAM1 201346Z 19008KT M03/M06 A3021 RMK A01 T10341056  RH  085%=      5-min Rain = 0
KAM1 201347Z 18007KT M03/M06 A3021 RMK A01 T10341055  RH  085%=      5-min Rain = 0
KAM1 201348Z 18006KT M03/M06 A3021 RMK A01 T10341055  RH  086%=      5-min Rain = 0
KAM1 201349Z 19007KT M04/M06 A3021 RMK A01 T10351055  RH  086%=      5-min Rain = 0
KAM1 201350Z 18007KT M04/M06 A3021 RMK A01 T10351055  RH  086%=      5-min Rain = 0
KAM1 201351Z 19007KT M04/M06 A302 RMK A01 T10351055  RH  086%=      5-min Rain = 0
KAM1 201352Z 18007KT M04/M06 A302 RMK A01 T10351055  RH  086%=      5-min Rain = 0
KAM1 201353Z 18007KT M04/M06 A3021 RMK A01 T10351055  RH  086%=      5-min Rain = 0
KAM1 201354Z 18007KT M04/M06 A3021 RMK A01 T10351055  RH  086%=      5-min Rain = 0
KAM1 201355Z 19007KT M04/M05 A3021 RMK A01 T10351054  RH  086%=      5-min Rain = 0
KAM1 201356Z 18007KT M04/M05 A302 RMK A01 T10351054  RH  086%=      5-min Rain = 0
KAM1 201357Z 19008KT M04/M06 A302 RMK A01 T10351055  RH  086%=      5-min Rain = 0
KAM1 201358Z 19007KT M04/M05 A3021 RMK A01 T10351054  RH  086%=      5-min Rain = 0
KAM1 201359Z 18007KT M03/M05 A3021 RMK A01 T10341054  RH  087%=      5-min Rain = 0
KAM1 201400Z 19007KT M03/M05 A3021 RMK A01 T10341053  RH  087%=      5-min Rain = 0
KAM1 201401Z 18007KT M03/M05 A3021 RMK A01 T10331052  RH  086%=      5-min Rain = 0
KAM1 201402Z 19007KT M03/M05 A3021 RMK A01 T10331052  RH  086%=      5-min Rain = 0
KAM1 201403Z 19008KT M03/M05 A3021 RMK A01 T10321052  RH  086%=      5-min Rain = 0
KAM1 201404Z 19007KT M03/M05 A3021 RMK A01 T10321052  RH  086%=      5-min Rain = 0
KAM1 201405Z 19008KT M03/M05 A3021 RMK A01 T10321053  RH  086%=      5-min Rain = 0
KAM1 201406Z 20008KT M03/M05 A3021 RMK A01 T10311052  RH  086%=      5-min Rain = 0
KAM1 201407Z 20008KT M03/M05 A3021 RMK A01 T10311052  RH  086%=      5-min Rain = 0
KAM1 201408Z 20008KT M03/M05 A3021 RMK A01 T10301051  RH  086%=      5-min Rain = 0
KAM1 201409Z 20006KT M03/M05 A3021 RMK A01 T10291050  RH  085%=      5-min Rain = 0
KAM1 201410Z 20008KT M03/M05 A3021 RMK A01 T10281050  RH  085%=      5-min Rain = 0
KAM1 201411Z 20007KT M03/M05 A3021 RMK A01 T10281051  RH  085%=      5-min Rain = 0
KAM1 201412Z 19008KT M03/M05 A3021 RMK A01 T10281051  RH  085%=      5-min Rain = 0
KAM1 201413Z 20007KT M03/M05 A3021 RMK A01 T10281050  RH  085%=      5-min Rain = 0
KAM1 201414Z 20008KT M03/M05 A3021 RMK A01 T10281050  RH  085%=      5-min Rain = 0
KAM1 201415Z 19008KT M03/M05 A3021 RMK A01 T10281050  RH  085%=      5-min Rain = 0
KAM1 201416Z 20009KT M03/M05 A3021 RMK A01 T10271050  RH  084%=      5-min Rain = 0
KAM1 201417Z 20007KT M03/M05 A3021 RMK A01 T10271050  RH  084%=      5-min Rain = 0
KAM1 201418Z 20007KT M03/M05 A302 RMK A01 T10261050  RH  084%=      5-min Rain = 0
KAM1 201419Z 20008KT M03/M05 A302 RMK A01 T10271050  RH  084%=      5-min Rain = 0
KAM1 201420Z 21008KT M03/M05 A302 RMK A01 T10261049  RH  084%=      5-min Rain = 0
KAM1 201421Z 20008KT M03/M05 A302 RMK A01 T10261049  RH  084%=      5-min Rain = 0
KAM1 201422Z 20008KT M03/M05 A302 RMK A01 T10261049  RH  084%=      5-min Rain = 0
KAM1 201423Z 20008KT M03/M05 A302 RMK A01 T10251048  RH  084%=      5-min Rain = 0
KAM1 201424Z 20007KT M02/M05 A302 RMK A01 T10241048  RH  084%=      5-min Rain = 0
KAM1 201425Z 20007KT M02/M05 A302 RMK A01 T10241048  RH  084%=      5-min Rain = 0
KAM1 201426Z 20007KT M02/M05 A302 RMK A01 T10231047  RH  084%=      5-min Rain = 0
KAM1 201427Z 21007KT M02/M05 A302 RMK A01 T10231047  RH  083%=      5-min Rain = 0
KAM1 201428Z 20007KT M02/M05 A302 RMK A01 T10221047  RH  083%=      5-min Rain = 0
KAM1 201429Z 21007KT M02/M05 A302 RMK A01 T10221046  RH  083%=      5-min Rain = 0
KAM1 201430Z 20007KT M02/M05 A302 RMK A01 T10211046  RH  083%=      5-min Rain = 0
KAM1 201431Z 21007KT M02/M05 A302 RMK A01 T10211046  RH  083%=      5-min Rain = 0
KAM1 201432Z 20007KT M02/M05 A302 RMK A01 T10201046  RH  083%=      5-min Rain = 0
KAM1 201433Z 21007KT M02/M05 A302 RMK A01 T10201046  RH  083%=      5-min Rain = 0
KAM1 201434Z 20007KT M02/M05 A302 RMK A01 T10201045  RH  083%=      5-min Rain = 0
KAM1 201435Z 21007KT M02/M05 A302 RMK A01 T10191045  RH  083%=      5-min Rain = 0
KAM1 201436Z 21009KT M02/M04 A302 RMK A01 T10181044  RH  082%=      5-min Rain = 0
KAM1 201437Z 21008KT M02/M04 A302 RMK A01 T10181044  RH  082%=      5-min Rain = 0
KAM1 201438Z 21008KT M02/M04 A302 RMK A01 T10181044  RH  082%=      5-min Rain = 0
KAM1 201439Z 21008KT M02/M04 A302 RMK A01 T10171044  RH  082%=      5-min Rain = 0
KAM1 201440Z 21009KT M02/M04 A302 RMK A01 T10171043  RH  082%=      5-min Rain = 0
KAM1 201441Z 20009KT M02/M04 A302 RMK A01 T10161043  RH  082%=      5-min Rain = 0
KAM1 201442Z 20008KT M02/M04 A302 RMK A01 T10161043  RH  082%=      5-min Rain = 0
KAM1 201443Z 21008KT M02/M04 A302 RMK A01 T10151042  RH  082%=      5-min Rain = 0
KAM1 201444Z 21008KT M02/M04 A302 RMK A01 T10151042  RH  082%=      5-min Rain = 0
KAM1 201445Z 21008KT M01/M04 A302 RMK A01 T10141041  RH  082%=      5-min Rain = 0
KAM1 201446Z 21009KT M01/M04 A302 RMK A01 T10141041  RH  082%=      5-min Rain = 0
KAM1 201447Z 21008KT M01/M04 A302 RMK A01 T10131041  RH  081%=      5-min Rain = 0
KAM1 201448Z 21008KT M01/M04 A302 RMK A01 T10131040  RH  081%=      5-min Rain = 0
KAM1 201449Z 21008KT M01/M04 A302 RMK A01 T10121040  RH  081%=      5-min Rain = 0
KAM1 201450Z 21007KT M01/M04 A302 RMK A01 T10121039  RH  081%=      5-min Rain = 0
KAM1 201451Z 21008KT M01/M04 A302 RMK A01 T10111039  RH  082%=      5-min Rain = 0
KAM1 201452Z 22009KT M01/M04 A302 RMK A01 T10101038  RH  081%=      5-min Rain = 0
KAM1 201453Z 21008KT M01/M04 A302 RMK A01 T10101039  RH  081%=      5-min Rain = 0
KAM1 201454Z 21010KT M01/M04 A302 RMK A01 T10091038  RH  080%=      5-min Rain = 0
KAM1 201455Z 22009KT M01/M04 A3019 RMK A01 T10081038  RH  080%=      5-min Rain = 0
KAM1 201456Z 21009KT M01/M04 A3019 RMK A01 T10071037  RH  080%=      5-min Rain = 0
KAM1 201457Z 21010KT M01/M04 A3019 RMK A01 T10061036  RH  080%=      5-min Rain = 0
KAM1 201458Z 21009KT M01/M04 A3019 RMK A01 T10061036  RH  080%=      5-min Rain = 0
KAM1 201459Z 21010KT M01/M04 A3019 RMK A01 T10051036  RH  080%=      5-min Rain = 0
KAM1 201500Z 21009KT M00/M04 A3019 RMK A01 T10041035  RH  079%=      5-min Rain = 0
KAM1 201501Z 22009KT M00/M04 A3019 RMK A01 T10031035  RH  079%=      5-min Rain = 0
KAM1 201502Z 22009KT M00/M04 A3019 RMK A01 T10031035  RH  079%=      5-min Rain = 0
KAM1 201503Z 22011KT M00/M03 A3019 RMK A01 T10021034  RH  079%=      5-min Rain = 0
KAM1 201504Z 22010KT M00/M03 A3019 RMK A01 T10011034  RH  078%=      5-min Rain = 0
KAM1 201505Z 22009KT 00/03 A3019 RMK A01 T00-00-34  RH  078%=      5-min Rain = 0
KAM1 201506Z 22010G15KT 00/03 A3019 RMK A01 T00-00-33  RH  078%=      5-min Rain = 0
KAM1 201507Z 22010KT 00/03 A3019 RMK A01 T00000-33  RH  078%=      5-min Rain = 0
KAM1 201508Z 21011KT 00/M03 A3019 RMK A01 T00011033  RH  078%=      5-min Rain = 0
KAM1 201509Z 22010KT 00/M03 A3019 RMK A01 T00011033  RH  077%=      5-min Rain = 0
KAM1 201510Z 21011KT 00/M03 A3019 RMK A01 T00021033  RH  077%=      5-min Rain = 0
KAM1 201511Z 21010KT 00/M03 A3019 RMK A01 T00021033  RH  077%=      5-min Rain = 0
KAM1 201512Z 21011KT 00/M03 A3019 RMK A01 T00021033  RH  077%=      5-min Rain = 0
KAM1 201513Z 21013KT 00/M03 A3019 RMK A01 T00031033  RH  077%=      5-min Rain = 0
KAM1 201514Z 21013KT 00/M03 A3019 RMK A01 T00031034  RH  076%=      5-min Rain = 0
KAM1 201515Z 21010KT 00/M03 A3019 RMK A01 T00031034  RH  076%=      5-min Rain = 0
KAM1 201516Z 21011KT 00/M03 A3019 RMK A01 T00041033  RH  076%=      5-min Rain = 0
KAM1 201517Z 22010KT 00/M03 A3019 RMK A01 T00041033  RH  077%=      5-min Rain = 0
KAM1 201518Z 22009KT 00/M03 A3019 RMK A01 T00041031  RH  077%=      5-min Rain = 0
KAM1 201519Z 22011KT 01/M03 A3019 RMK A01 T00051031  RH  077%=      5-min Rain = 0
KAM1 201520Z 21011KT 01/M03 A3019 RMK A01 T00051031  RH  077%=      5-min Rain = 0
KAM1 201521Z 22010KT 01/M03 A3019 RMK A01 T00051031  RH  077%=      5-min Rain = 0
KAM1 201522Z 22014KT 01/M03 A3019 RMK A01 T00051031  RH  076%=      5-min Rain = 0
KAM1 201523Z 21011KT 01/M03 A3019 RMK A01 T00061031  RH  076%=      5-min Rain = 0
KAM1 201524Z 22011KT 01/M03 A3019 RMK A01 T00071031  RH  076%=      5-min Rain = 0
KAM1 201525Z 22011KT 01/M03 A3019 RMK A01 T00071031  RH  076%=      5-min Rain = 0
KAM1 201526Z 21012KT 01/M03 A3019 RMK A01 T00071031  RH  076%=      5-min Rain = 0
KAM1 201527Z 21012KT 01/M03 A3018 RMK A01 T00071032  RH  075%=      5-min Rain = 0
KAM1 201528Z 21012KT 01/M03 A3018 RMK A01 T00081031  RH  075%=      5-min Rain = 0
KAM1 201529Z 21011KT 01/M03 A3018 RMK A01 T00081030  RH  076%=      5-min Rain = 0
KAM1 201530Z 21011KT 01/M03 A3018 RMK A01 T00081030  RH  076%=      5-min Rain = 0
KAM1 201531Z 21010KT 01/M03 A3018 RMK A01 T00091030  RH  075%=      5-min Rain = 0
KAM1 201532Z 22011KT 01/M03 A3018 RMK A01 T00101029  RH  075%=      5-min Rain = 0
KAM1 201533Z 21012KT 01/M03 A3018 RMK A01 T00101029  RH  075%=      5-min Rain = 0
KAM1 201534Z 21012KT 01/M03 A3018 RMK A01 T00111029  RH  075%=      5-min Rain = 0
KAM1 201535Z 22011KT 01/M03 A3018 RMK A01 T00111029  RH  074%=      5-min Rain = 0
KAM1 201536Z 21012KT 01/M03 A3018 RMK A01 T00121028  RH  075%=      5-min Rain = 0
KAM1 201537Z 21012KT 01/M03 A3018 RMK A01 T00121028  RH  074%=      5-min Rain = 0
KAM1 201538Z 21013KT 01/M03 A3018 RMK A01 T00131028  RH  074%=      5-min Rain = 0
KAM1 201539Z 21012KT 01/M03 A3018 RMK A01 T00131028  RH  074%=      5-min Rain = 0
KAM1 201540Z 21010KT 01/M03 A3018 RMK A01 T00141028  RH  074%=      5-min Rain = 0
KAM1 201541Z 21011KT 01/M03 A3018 RMK A01 T00141027  RH  074%=      5-min Rain = 0
KAM1 201542Z 21012KT 02/M03 A3018 RMK A01 T00151027  RH  074%=      5-min Rain = 0
KAM1 201543Z 21012KT 02/M03 A3018 RMK A01 T00151027  RH  073%=      5-min Rain = 0
KAM1 201544Z 21012KT 02/M03 A3018 RMK A01 T00161027  RH  073%=      5-min Rain = 0
KAM1 201545Z 21010KT 02/M03 A3018 RMK A01 T00161027  RH  073%=      5-min Rain = 0
KAM1 201546Z 21011KT 02/M03 A3018 RMK A01 T00171026  RH  073%=      5-min Rain = 0
KAM1 201547Z 21012KT 02/M03 A3018 RMK A01 T00181026  RH  073%=      5-min Rain = 0
KAM1 201548Z 21012KT 02/M03 A3018 RMK A01 T00191025  RH  073%=      5-min Rain = 0
KAM1 201549Z 22012KT 02/M03 A3018 RMK A01 T00191025  RH  072%=      5-min Rain = 0
KAM1 201550Z 21010KT 02/M03 A3018 RMK A01 T00201025  RH  072%=      5-min Rain = 0
KAM1 201551Z 21010KT 02/M02 A3018 RMK A01 T00211024  RH  072%=      5-min Rain = 0
KAM1 201552Z 22012KT 02/M02 A3018 RMK A01 T00221023  RH  072%=      5-min Rain = 0
KAM1 201553Z 22012KT 02/M02 A3018 RMK A01 T00241023  RH  071%=      5-min Rain = 0
KAM1 201554Z 21013KT 02/M02 A3018 RMK A01 T00241024  RH  071%=      5-min Rain = 0
KAM1 201555Z 21012KT 02/M03 A3018 RMK A01 T00241025  RH  070%=      5-min Rain = 0
KAM1 201556Z 21011KT 03/M02 A3018 RMK A01 T00251024  RH  070%=      5-min Rain = 0
KAM1 201557Z 21012KT 03/M02 A3018 RMK A01 T00251023  RH  070%=      5-min Rain = 0
KAM1 201558Z 22012KT 03/M02 A3018 RMK A01 T00261022  RH  070%=      5-min Rain = 0
KAM1 201559Z 21014KT 03/M02 A3018 RMK A01 T00271023  RH  070%=      5-min Rain = 0
KAM1 201600Z 21012KT 03/M02 A3017 RMK A01 T00271024  RH  069%=      5-min Rain = 0
KAM1 201601Z 21013KT 03/M02 A3017 RMK A01 T00271024  RH  069%=      5-min Rain = 0
KAM1 201602Z 22015KT 03/M03 A3017 RMK A01 T00271025  RH  069%=      5-min Rain = 0
KAM1 201603Z 22016KT 03/M03 A3017 RMK A01 T00271026  RH  068%=      5-min Rain = 0
KAM1 201604Z 21013KT 03/M03 A3018 RMK A01 T00271026  RH  068%=      5-min Rain = 0
KAM1 201605Z 22014KT 03/M03 A3018 RMK A01 T00271026  RH  068%=      5-min Rain = 0
KAM1 201606Z 22015KT 03/M03 A3017 RMK A01 T00271026  RH  068%=      5-min Rain = 0
KAM1 201607Z 22013KT 03/M03 A3018 RMK A01 T00271026  RH  068%=      5-min Rain = 0
KAM1 201608Z 21012KT 03/M03 A3018 RMK A01 T00281025  RH  068%=      5-min Rain = 0
KAM1 201609Z 22011KT 03/M02 A3018 RMK A01 T00291024  RH  068%=      5-min Rain = 0
KAM1 201610Z 21011KT 03/M02 A3018 RMK A01 T00291023  RH  068%=      5-min Rain = 0
KAM1 201611Z 21012KT 03/M02 A3018 RMK A01 T00301023  RH  068%=      5-min Rain = 0
KAM1 201612Z 22013KT 03/M03 A3018 RMK A01 T00301025  RH  067%=      5-min Rain = 0
KAM1 201613Z 21011KT 03/M03 A3018 RMK A01 T00301026  RH  067%=      5-min Rain = 0
KAM1 201614Z 22012KT 03/M02 A3018 RMK A01 T00301024  RH  067%=      5-min Rain = 0
KAM1 201615Z 22011KT 03/M02 A3018 RMK A01 T00311024  RH  067%=      5-min Rain = 0
KAM1 201616Z 22010KT 03/M02 A3018 RMK A01 T00311024  RH  067%=      5-min Rain = 0
KAM1 201617Z 22013KT 03/M02 A3018 RMK A01 T00321024  RH  067%=      5-min Rain = 0
KAM1 201618Z 23014KT 03/M02 A3018 RMK A01 T00321024  RH  067%=      5-min Rain = 0
KAM1 201619Z 22013KT 03/M03 A3018 RMK A01 T00321025  RH  066%=      5-min Rain = 0
KAM1 201620Z 23010KT 03/M02 A3018 RMK A01 T00331023  RH  067%=      5-min Rain = 0
KAM1 201621Z 22014KT 03/M02 A3018 RMK A01 T00341023  RH  066%=      5-min Rain = 0
KAM1 201622Z 22013KT 03/M03 A3018 RMK A01 T00341025  RH  066%=      5-min Rain = 0
KAM1 201623Z 22013KT 03/M03 A3018 RMK A01 T00341026  RH  065%=      5-min Rain = 0
KAM1 201624Z 22011KT 03/M03 A3018 RMK A01 T00331025  RH  065%=      5-min Rain = 0
KAM1 201625Z 22014KT 03/M03 A3018 RMK A01 T00341025  RH  066%=      5-min Rain = 0
KAM1 201626Z 22013KT 03/M03 A3018 RMK A01 T00341026  RH  065%=      5-min Rain = 0
KAM1 201627Z 21011KT 03/M03 A3018 RMK A01 T00341025  RH  065%=      5-min Rain = 0
KAM1 201628Z 21012KT 04/M02 A3018 RMK A01 T00361022  RH  066%=      5-min Rain = 0
KAM1 201629Z 22013KT 04/M02 A3017 RMK A01 T00361023  RH  065%=      5-min Rain = 0
KAM1 201630Z 21011KT 04/M02 A3017 RMK A01 T00361024  RH  065%=      5-min Rain = 0
KAM1 201631Z 22012KT 04/M02 A3017 RMK A01 T00371023  RH  065%=      5-min Rain = 0
KAM1 201632Z 21013KT 04/M03 A3017 RMK A01 T00371025  RH  064%=      5-min Rain = 0
KAM1 201633Z 21011KT 04/M02 A3017 RMK A01 T00371024  RH  065%=      5-min Rain = 0
KAM1 201634Z 21012KT 04/M02 A3017 RMK A01 T00381022  RH  065%=      5-min Rain = 0
KAM1 201635Z 21012KT 04/M02 A3017 RMK A01 T00391024  RH  064%=      5-min Rain = 0
KAM1 201636Z 21013KT 04/M02 A3017 RMK A01 T00391024  RH  063%=      5-min Rain = 0
KAM1 201637Z 21013KT 04/M03 A3017 RMK A01 T00391025  RH  063%=      5-min Rain = 0
KAM1 201638Z 22012KT 04/M03 A3017 RMK A01 T00391025  RH  063%=      5-min Rain = 0
KAM1 201639Z 21010KT 04/M02 A3017 RMK A01 T00401022  RH  064%=      5-min Rain = 0
KAM1 201640Z 20012KT 04/M02 A3017 RMK A01 T00421021  RH  064%=      5-min Rain = 0
KAM1 201641Z 20013KT 04/M02 A3017 RMK A01 T00421024  RH  062%=      5-min Rain = 0
KAM1 201642Z 20011KT 04/M03 A3017 RMK A01 T00411025  RH  062%=      5-min Rain = 0
KAM1 201643Z 21011KT 04/M02 A3017 RMK A01 T00421023  RH  063%=      5-min Rain = 0
KAM1 201644Z 21011KT 04/M02 A3017 RMK A01 T00431024  RH  062%=      5-min Rain = 0
KAM1 201645Z 21013KT 04/M02 A3016 RMK A01 T00431024  RH  062%=      5-min Rain = 0
KAM1 201646Z 21013KT 04/M03 A3016 RMK A01 T00431025  RH  061%=      5-min Rain = 0
KAM1 201647Z 21013KT 04/M03 A3016 RMK A01 T00431025  RH  061%=      5-min Rain = 0
KAM1 201648Z 21013KT 04/M03 A3016 RMK A01 T00431026  RH  061%=      5-min Rain = 0
KAM1 201649Z 21012KT 04/M02 A3016 RMK A01 T00441024  RH  061%=      5-min Rain = 0
KAM1 201650Z 22013KT 05/M02 A3016 RMK A01 T00451024  RH  061%=      5-min Rain = 0
KAM1 201651Z 21010KT 05/M02 A3016 RMK A01 T00461024  RH  060%=      5-min Rain = 0
KAM1 201652Z 22011KT 05/M02 A3016 RMK A01 T00471022  RH  061%=      5-min Rain = 0
KAM1 201653Z 21014KT 05/M02 A3016 RMK A01 T00481023  RH  060%=      5-min Rain = 0
KAM1 201654Z 21012KT 05/M03 A3016 RMK A01 T00471025  RH  059%=      5-min Rain = 0
KAM1 201655Z 21012KT 05/M02 A3016 RMK A01 T00471024  RH  060%=      5-min Rain = 0
KAM1 201656Z 21012KT 05/M02 A3016 RMK A01 T00471024  RH  060%=      5-min Rain = 0
KAM1 201657Z 21015KT 05/M03 A3016 RMK A01 T00471025  RH  059%=      5-min Rain = 0
KAM1 201658Z 21012KT 05/M03 A3016 RMK A01 T00481026  RH  059%=      5-min Rain = 0
KAM1 201659Z 20009KT 05/M02 A3016 RMK A01 T00481024  RH  060%=      5-min Rain = 0
KAM1 201700Z 20012KT 05/M02 A3016 RMK A01 T00491022  RH  060%=      5-min Rain = 0
KAM1 201701Z 21013KT 05/M02 A3016 RMK A01 T00501024  RH  059%=      5-min Rain = 0
KAM1 201702Z 21014KT 05/M02 A3016 RMK A01 T00501024  RH  059%=      5-min Rain = 0
KAM1 201703Z 21013KT 05/M03 A3016 RMK A01 T00501025  RH  058%=      5-min Rain = 0
KAM1 201704Z 21013KT 05/M03 A3016 RMK A01 T00491025  RH  059%=      5-min Rain = 0
KAM1 201705Z 21014KT 05/M03 A3016 RMK A01 T00491026  RH  058%=      5-min Rain = 0
KAM1 201706Z 21014KT 05/M03 A3016 RMK A01 T00491026  RH  058%=      5-min Rain = 0
KAM1 201707Z 21014KT 05/M03 A3016 RMK A01 T00491026  RH  058%=      5-min Rain = 0
KAM1 201708Z 21012KT 05/M03 A3016 RMK A01 T00491026  RH  058%=      5-min Rain = 0
KAM1 201709Z 21012KT 05/M03 A3016 RMK A01 T00501026  RH  058%=      5-min Rain = 0
KAM1 201710Z 21011KT 05/M03 A3016 RMK A01 T00511025  RH  058%=      5-min Rain = 0
KAM1 201711Z 21012KT 05/M02 A3016 RMK A01 T00531022  RH  058%=      5-min Rain = 0
KAM1 201712Z 21014KT 06/M02 A3016 RMK A01 T00551022  RH  058%=      5-min Rain = 0
KAM1 201713Z 20013KT 06/M02 A3016 RMK A01 T00561024  RH  057%=      5-min Rain = 0
KAM1 201714Z 20013KT 06/M02 A3016 RMK A01 T00571023  RH  056%=      5-min Rain = 0
KAM1 201715Z 22013KT 06/M02 A3016 RMK A01 T00581022  RH  056%=      5-min Rain = 0
KAM1 201716Z 20013KT 06/M02 A3016 RMK A01 T00591022  RH  056%=      5-min Rain = 0
KAM1 201717Z 21013KT 06/M02 A3016 RMK A01 T00601024  RH  055%=      5-min Rain = 0
KAM1 201718Z 21013KT 06/M03 A3016 RMK A01 T00591025  RH  055%=      5-min Rain = 0
KAM1 201719Z 22011G16KT 06/M02 A3016 RMK A01 T00581024  RH  055%=      5-min Rain = 0
KAM1 201720Z 21015KT 06/M03 A3016 RMK A01 T00591025  RH  055%=      5-min Rain = 0
KAM1 201721Z 21014KT 06/M03 A3016 RMK A01 T00581028  RH  054%=      5-min Rain = 0
KAM1 201722Z 21014KT 06/M03 A3016 RMK A01 T00571028  RH  054%=      5-min Rain = 0
KAM1 201723Z 22014KT 06/M03 A3016 RMK A01 T00571027  RH  054%=      5-min Rain = 0
KAM1 201724Z 22015KT 06/M02 A3016 RMK A01 T00601024  RH  055%=      5-min Rain = 0
KAM1 201725Z 21016KT 06/M03 A3016 RMK A01 T00611026  RH  054%=      5-min Rain = 0
KAM1 201726Z 21014KT 06/M03 A3016 RMK A01 T00621026  RH  053%=      5-min Rain = 0
KAM1 201727Z 21015KT 07/M02 A3016 RMK A01 T00651022  RH  054%=      5-min Rain = 0
KAM1 201728Z 21015KT 07/M02 A3016 RMK A01 T00671022  RH  053%=      5-min Rain = 0
KAM1 201729Z 22014KT 07/M02 A3016 RMK A01 T00681023  RH  052%=      5-min Rain = 0
KAM1 201730Z 21012KT 07/M02 A3016 RMK A01 T00681022  RH  052%=      5-min Rain = 0
KAM1 201731Z 20015KT 07/M02 A3015 RMK A01 T00721019  RH  052%=      5-min Rain = 0
KAM1 201732Z 21014KT 07/M02 A3015 RMK A01 T00721023  RH  051%=      5-min Rain = 0
KAM1 201733Z 21012KT 07/M02 A3015 RMK A01 T00721022  RH  051%=      5-min Rain = 0
KAM1 201734Z 22010KT 07/M02 A3015 RMK A01 T00741019  RH  051%=      5-min Rain = 0
KAM1 201735Z 22010KT 08/M02 A3015 RMK A01 T00791015  RH  051%=      5-min Rain = 0
KAM1 201736Z 22012KT 08/M02 A3015 RMK A01 T00831016  RH  050%=      5-min Rain = 0
KAM1 201737Z 22015KT 09/M02 A3015 RMK A01 T00851018  RH  048%=      5-min Rain = 0
KAM1 201738Z 22015KT 08/M02 A3015 RMK A01 T00821023  RH  048%=      5-min Rain = 0
KAM1 201739Z 22011KT 08/M02 A3016 RMK A01 T00801023  RH  048%=      5-min Rain = 0
KAM1 201740Z 21013KT 08/M02 A3015 RMK A01 T00821020  RH  049%=      5-min Rain = 0
KAM1 201741Z 23015KT 08/M02 A3015 RMK A01 T00841022  RH  047%=      5-min Rain = 0
KAM1 201742Z 23014KT 08/M02 A3015 RMK A01 T00841024  RH  046%=      5-min Rain = 0
KAM1 201743Z 21015KT 08/M03 A3015 RMK A01 T00841025  RH  046%=      5-min Rain = 0
KAM1 201744Z 22015KT 08/M03 A3015 RMK A01 T00841025  RH  046%=      5-min Rain = 0
KAM1 201745Z 23014KT 08/M03 A3015 RMK A01 T00841026  RH  046%=      5-min Rain = 0
KAM1 201746Z 23013KT 09/M02 A3015 RMK A01 T00851024  RH  046%=      5-min Rain = 0
KAM1 201747Z 22014KT 09/M02 A3015 RMK A01 T00871024  RH  046%=      5-min Rain = 0
KAM1 201748Z 23014KT 09/M02 A3015 RMK A01 T00881023  RH  046%=      5-min Rain = 0
KAM1 201749Z 23014KT 09/M03 A3015 RMK A01 T00881025  RH  045%=      5-min Rain = 0
KAM1 201750Z 23014KT 09/M02 A3015 RMK A01 T00881024  RH  045%=      5-min Rain = 0
KAM1 201751Z 21014KT 09/M03 A3015 RMK A01 T00881025  RH  045%=      5-min Rain = 0
KAM1 201752Z 22015KT 09/M02 A3015 RMK A01 T00891024  RH  045%=      5-min Rain = 0
KAM1 201753Z 23015KT 09/M02 A3015 RMK A01 T00891024  RH  045%=      5-min Rain = 0
KAM1 201754Z 23013KT 09/M02 A3015 RMK A01 T00901024  RH  045%=      5-min Rain = 0
KAM1 201755Z 22014KT 09/M02 A3015 RMK A01 T00911023  RH  045%=      5-min Rain = 0
KAM1 201756Z 23013KT 09/M02 A3015 RMK A01 T00921022  RH  045%=      5-min Rain = 0
KAM1 201757Z 23013KT 09/M02 A3015 RMK A01 T00931023  RH  044%=      5-min Rain = 0
KAM1 201758Z 21013KT 09/M02 A3015 RMK A01 T00941021  RH  044%=      5-min Rain = 0
KAM1 201759Z 23011KT 10/M02 A3015 RMK A01 T00971018  RH  044%=      5-min Rain = 0
KAM1 201800Z 23011KT 10/M02 A3015 RMK A01 T01001018  RH  044%=      5-min Rain = 0
KAM1 201801Z 22014KT 10/M02 A3015 RMK A01 T01001021  RH  043%=      5-min Rain = 0
KAM1 201802Z 23014KT 10/M02 A3015 RMK A01 T00991023  RH  042%=      5-min Rain = 0
KAM1 201803Z 24013KT 10/M03 A3015 RMK A01 T00971025  RH  042%=      5-min Rain = 0
KAM1 201804Z 23012KT 10/M02 A3015 RMK A01 T00971024  RH  043%=      5-min Rain = 0
KAM1 201805Z 22013KT 10/M02 A3015 RMK A01 T00981023  RH  043%=      5-min Rain = 0
KAM1 201806Z 23013KT 10/M02 A3015 RMK A01 T00991022  RH  042%=      5-min Rain = 0
KAM1 201807Z 22013KT 10/M03 A3014 RMK A01 T00991025  RH  042%=      5-min Rain = 0
KAM1 201808Z 23012KT 10/M02 A3014 RMK A01 T00981023  RH  043%=      5-min Rain = 0
KAM1 201809Z 23011KT 10/M02 A3014 RMK A01 T01001022  RH  042%=      5-min Rain = 0
KAM1 201810Z 21011KT 10/M02 A3014 RMK A01 T01011023  RH  042%=      5-min Rain = 0
KAM1 201811Z 22013KT 10/M02 A3014 RMK A01 T01021020  RH  043%=      5-min Rain = 0
KAM1 201812Z 21013KT 10/M02 A3014 RMK A01 T01021022  RH  042%=      5-min Rain = 0
KAM1 201813Z 22013KT 10/M03 A3014 RMK A01 T00991025  RH  042%=      5-min Rain = 0
KAM1 201814Z 22008KT 10/M03 A3014 RMK A01 T00961025  RH  042%=      5-min Rain = 0
KAM1 201815Z 23011KT 10/M02 A3014 RMK A01 T00961023  RH  043%=      5-min Rain = 0
KAM1 201816Z 23012KT 10/M02 A3014 RMK A01 T00981022  RH  043%=      5-min Rain = 0
KAM1 201817Z 22010KT 10/M02 A3014 RMK A01 T01001018  RH  043%=      5-min Rain = 0
KAM1 201818Z 23011KT 10/M02 A3014 RMK A01 T01031019  RH  042%=      5-min Rain = 0
KAM1 201819Z 22012KT 10/M02 A3014 RMK A01 T01031021  RH  042%=      5-min Rain = 0
KAM1 201820Z 22013KT 10/M02 A3014 RMK A01 T01031022  RH  042%=      5-min Rain = 0
KAM1 201821Z 22012KT 10/M02 A3014 RMK A01 T01041022  RH  041%=      5-min Rain = 0
KAM1 201822Z 22012KT 11/M02 A3014 RMK A01 T01061021  RH  041%=      5-min Rain = 0
KAM1 201823Z 23011KT 11/M02 A3014 RMK A01 T01071021  RH  041%=      5-min Rain = 0
KAM1 201824Z 23010KT 11/M02 A3014 RMK A01 T01051022  RH  041%=      5-min Rain = 0
KAM1 201825Z 23010KT 11/M02 A3014 RMK A01 T01051020  RH  042%=      5-min Rain = 0
KAM1 201826Z 22012KT 11/M02 A3014 RMK A01 T01061022  RH  041%=      5-min Rain = 0
KAM1 201827Z 23012KT 11/M03 A3014 RMK A01 T01071025  RH  040%=      5-min Rain = 0
KAM1 201828Z 23012KT 11/M03 A3014 RMK A01 T01071026  RH  039%=      5-min Rain = 0
KAM1 201829Z 23012KT 11/M03 A3014 RMK A01 T01061027  RH  039%=      5-min Rain = 0
KAM1 201830Z 23011KT 11/M03 A3014 RMK A01 T01051027  RH  039%=      5-min Rain = 0
KAM1 201831Z 22010KT 11/M03 A3014 RMK A01 T01061026  RH  040%=      5-min Rain = 0
KAM1 201832Z 23007KT 11/M03 A3013 RMK A01 T01051025  RH  040%=      5-min Rain = 0
KAM1 201833Z 24009KT 11/M02 A3013 RMK A01 T01071023  RH  040%=      5-min Rain = 0
KAM1 201834Z 23009KT 11/M03 A3013 RMK A01 T01071025  RH  039%=      5-min Rain = 0
KAM1 201835Z 22012KT 11/M03 A3013 RMK A01 T01071026  RH  039%=      5-min Rain = 0
KAM1 201836Z 23010KT 11/M03 A3013 RMK A01 T01061028  RH  039%=      5-min Rain = 0
KAM1 201837Z 24010KT 11/M03 A3013 RMK A01 T01071029  RH  039%=      5-min Rain = 0
KAM1 201838Z 24010KT 11/M03 A3013 RMK A01 T01061030  RH  038%=      5-min Rain = 0
KAM1 201839Z 24009KT 11/M03 A3013 RMK A01 T01051030  RH  038%=      5-min Rain = 0
KAM1 201840Z 24010KT 11/M03 A3013 RMK A01 T01061028  RH  039%=      5-min Rain = 0
KAM1 201841Z 23009KT 11/M03 A3013 RMK A01 T01071029  RH  038%=      5-min Rain = 0
KAM1 201842Z 24007KT 11/M03 A3013 RMK A01 T01071030  RH  038%=      5-min Rain = 0
KAM1 201843Z 24009KT 11/M03 A3013 RMK A01 T01091025  RH  039%=      5-min Rain = 0
KAM1 201844Z 25009KT 11/M03 A3013 RMK A01 T01131026  RH  038%=      5-min Rain = 0
KAM1 201845Z 23008KT 11/M03 A3013 RMK A01 T01131027  RH  037%=      5-min Rain = 0
KAM1 201846Z 23009KT 11/M03 A3013 RMK A01 T01131027  RH  038%=      5-min Rain = 0
KAM1 201847Z 24009KT 11/M03 A3013 RMK A01 T01131027  RH  037%=      5-min Rain = 0
KAM1 201848Z 24010KT 11/M03 A3012 RMK A01 T01131028  RH  037%=      5-min Rain = 0
KAM1 201849Z 23010KT 11/M03 A3012 RMK A01 T01141027  RH  037%=      5-min Rain = 0
KAM1 201850Z 23012KT 12/M03 A3012 RMK A01 T01151028  RH  037%=      5-min Rain = 0
KAM1 201851Z 23012KT 12/M03 A3012 RMK A01 T01161030  RH  036%=      5-min Rain = 0
KAM1 201852Z 23011KT 12/M03 A3012 RMK A01 T01161030  RH  036%=      5-min Rain = 0
KAM1 201853Z 23011KT 12/M03 A3012 RMK A01 T01151031  RH  036%=      5-min Rain = 0
KAM1 201854Z 23013KT 12/M03 A3012 RMK A01 T01151032  RH  036%=      5-min Rain = 0
KAM1 201855Z 23013KT 12/M03 A3012 RMK A01 T01151033  RH  035%=      5-min Rain = 0
KAM1 201856Z 23013KT 11/M03 A3012 RMK A01 T01141033  RH  035%=      5-min Rain = 0
KAM1 201857Z 23012KT 11/M03 A3012 RMK A01 T01141033  RH  036%=      5-min Rain = 0
KAM1 201858Z 23012KT 11/M03 A3011 RMK A01 T01131032  RH  036%=      5-min Rain = 0
KAM1 201859Z 23010KT 11/M03 A3011 RMK A01 T01131033  RH  036%=      5-min Rain = 0
KAM1 201900Z 23010KT 11/M03 A3011 RMK A01 T01131031  RH  036%=      5-min Rain = 0
KAM1 201901Z 24010KT 12/M03 A3011 RMK A01 T01161028  RH  036%=      5-min Rain = 0
KAM1 201902Z 23009KT 12/M03 A3011 RMK A01 T01171029  RH  036%=      5-min Rain = 0
KAM1 201903Z 24010KT 12/M03 A3011 RMK A01 T01181028  RH  036%=      5-min Rain = 0
KAM1 201904Z 25011KT 12/M03 A3011 RMK A01 T01181029  RH  036%=      5-min Rain = 0
KAM1 201905Z 24009KT 12/M03 A3012 RMK A01 T01161029  RH  036%=      5-min Rain = 0
KAM1 201906Z 22011KT 12/M03 A3011 RMK A01 T01161028  RH  036%=      5-min Rain = 0
KAM1 201907Z 22012KT 12/M03 A3011 RMK A01 T01161029  RH  036%=      5-min Rain = 0
KAM1 201908Z 23011KT 12/M03 A3011 RMK A01 T01161028  RH  036%=      5-min Rain = 0
KAM1 201909Z 25011KT 12/M03 A3011 RMK A01 T01161026  RH  037%=      5-min Rain = 0
KAM1 201910Z 24010KT 12/M03 A3011 RMK A01 T01161026  RH  037%=      5-min Rain = 0
KAM1 201911Z 23012KT 12/M02 A3011 RMK A01 T01191024  RH  037%=      5-min Rain = 0
KAM1 201912Z 23011KT 12/M03 A3011 RMK A01 T01201026  RH  036%=      5-min Rain = 0
KAM1 201913Z 23012KT 12/M03 A3011 RMK A01 T01201029  RH  035%=      5-min Rain = 0
KAM1 201914Z 25010KT 12/M03 A3011 RMK A01 T01191026  RH  036%=      5-min Rain = 0
KAM1 201915Z 24009KT 12/M02 A3011 RMK A01 T01191024  RH  037%=      5-min Rain = 0
KAM1 201916Z 24010KT 12/M02 A3011 RMK A01 T01201024  RH  036%=      5-min Rain = 0
KAM1 201917Z 24011KT 12/M03 A3011 RMK A01 T01221025  RH  036%=      5-min Rain = 0
KAM1 201918Z 24010KT 12/M03 A3011 RMK A01 T01231025  RH  036%=      5-min Rain = 0
KAM1 201919Z 25011KT 13/M02 A3011 RMK A01 T01251023  RH  036%=      5-min Rain = 0
KAM1 201920Z 24011KT 13/M02 A3011 RMK A01 T01251024  RH  035%=      5-min Rain = 0
KAM1 201921Z 23010KT 13/M03 A3011 RMK A01 T01261026  RH  035%=      5-min Rain = 0
KAM1 201922Z 24011KT 13/M03 A3011 RMK A01 T01261029  RH  034%=      5-min Rain = 0
KAM1 201923Z 23012KT 13/M03 A3011 RMK A01 T01251028  RH  034%=      5-min Rain = 0
KAM1 201924Z 24011KT 13/M03 A3011 RMK A01 T01271028  RH  034%=      5-min Rain = 0
KAM1 201925Z 24011KT 13/M03 A3011 RMK A01 T01271027  RH  034%=      5-min Rain = 0
KAM1 201926Z 23012KT 13/M03 A301 RMK A01 T01281027  RH  034%=      5-min Rain = 0
KAM1 201927Z 23010KT 13/M03 A301 RMK A01 T01281026  RH  034%=      5-min Rain = 0
KAM1 201928Z 23012KT 13/M03 A301 RMK A01 T01271026  RH  034%=      5-min Rain = 0
KAM1 201929Z 24011KT 13/M03 A301 RMK A01 T01271026  RH  034%=      5-min Rain = 0
KAM1 201930Z 25012KT 13/M03 A301 RMK A01 T01271028  RH  034%=      5-min Rain = 0
KAM1 201931Z 24012KT 13/M03 A301 RMK A01 T01261029  RH  034%=      5-min Rain = 0
KAM1 201932Z 25013KT 13/M03 A301 RMK A01 T01251030  RH  034%=      5-min Rain = 0
KAM1 201933Z 25014KT 12/M03 A301 RMK A01 T01231032  RH  034%=      5-min Rain = 0
KAM1 201934Z 25012KT 12/M03 A301 RMK A01 T01201033  RH  034%=      5-min Rain = 0
KAM1 201935Z 25012KT 12/M03 A301 RMK A01 T01191032  RH  034%=      5-min Rain = 0
KAM1 201936Z 25012KT 12/M03 A301 RMK A01 T01201031  RH  035%=      5-min Rain = 0
KAM1 201937Z 25013KT 12/M03 A301 RMK A01 T01211032  RH  034%=      5-min Rain = 0
KAM1 201938Z 25011KT 12/M03 A301 RMK A01 T01201029  RH  035%=      5-min Rain = 0
KAM1 201939Z 25013KT 12/M03 A301 RMK A01 T01211028  RH  035%=      5-min Rain = 0
KAM1 201940Z 24012KT 12/M03 A301 RMK A01 T01221027  RH  035%=      5-min Rain = 0
KAM1 201941Z 25012KT 12/M03 A301 RMK A01 T01231026  RH  035%=      5-min Rain = 0
KAM1 201942Z 23011KT 13/M02 A3009 RMK A01 T01271022  RH  035%=      5-min Rain = 0
KAM1 201943Z 23011KT 13/M02 A3009 RMK A01 T01301022  RH  035%=      5-min Rain = 0
KAM1 201944Z 24011KT 13/M03 A3009 RMK A01 T01301025  RH  034%=      5-min Rain = 0
KAM1 201945Z 24009KT 13/M02 A3009 RMK A01 T01291024  RH  034%=      5-min Rain = 0
KAM1 201946Z 24010KT 13/M02 A3009 RMK A01 T01291023  RH  035%=      5-min Rain = 0
KAM1 201947Z 25009KT 13/M02 A3009 RMK A01 T01281024  RH  035%=      5-min Rain = 0
KAM1 201948Z 24008KT 13/M02 A3009 RMK A01 T01261024  RH  035%=      5-min Rain = 0
KAM1 201949Z 23009KT 13/M02 A3009 RMK A01 T01261022  RH  036%=      5-min Rain = 0
KAM1 201950Z 24008KT 12/M03 A3009 RMK A01 T01241025  RH  035%=      5-min Rain = 0
KAM1 201951Z 24011KT 12/M03 A3009 RMK A01 T01221025  RH  036%=      5-min Rain = 0
KAM1 201952Z 23009KT 12/M02 A3009 RMK A01 T01241024  RH  036%=      5-min Rain = 0
KAM1 201953Z 23011KT 13/M02 A3009 RMK A01 T01261023  RH  035%=      5-min Rain = 0
KAM1 201954Z 24009KT 13/M02 A3009 RMK A01 T01271023  RH  035%=      5-min Rain = 0
KAM1 201955Z 23010KT 13/M02 A3008 RMK A01 T01281020  RH  036%=      5-min Rain = 0
KAM1 201956Z 23011KT 13/M02 A3008 RMK A01 T01291022  RH  035%=      5-min Rain = 0
KAM1 201957Z 23010KT 13/M02 A3008 RMK A01 T01271024  RH  035%=      5-min Rain = 0
KAM1 201958Z 23007KT 13/M02 A3008 RMK A01 T01251023  RH  036%=      5-min Rain = 0
KAM1 201959Z 23010KT 13/M02 A3008 RMK A01 T01261021  RH  036%=      5-min Rain = 0
KAM1 202000Z 24009KT 13/M02 A3008 RMK A01 T01271023  RH  035%=      5-min Rain = 0
KAM1 202001Z 24010KT 13/M02 A3008 RMK A01 T01281022  RH  035%=      5-min Rain = 0
KAM1 202002Z 24011KT 13/M02 A3008 RMK A01 T01301022  RH  035%=      5-min Rain = 0
KAM1 202003Z 24010KT 13/M02 A3008 RMK A01 T01311022  RH  034%=      5-min Rain = 0
KAM1 202004Z 25009KT 13/M02 A3008 RMK A01 T01321022  RH  034%=      5-min Rain = 0
KAM1 202005Z 24010KT 13/M02 A3008 RMK A01 T01341019  RH  035%=      5-min Rain = 0
KAM1 202006Z 23009KT 14/M02 A3008 RMK A01 T01371018  RH  034%=      5-min Rain = 0
KAM1 202007Z 22010KT 14/M02 A3008 RMK A01 T01391019  RH  034%=      5-min Rain = 0
KAM1 202008Z 24010KT 14/M02 A3008 RMK A01 T01391022  RH  033%=      5-min Rain = 0
KAM1 202009Z 24009KT 14/M03 A3008 RMK A01 T01371025  RH  032%=      5-min Rain = 0
KAM1 202010Z 25007KT 13/M03 A3008 RMK A01 T01341025  RH  033%=      5-min Rain = 0
KAM1 202011Z 22010KT 13/M03 A3008 RMK A01 T01341025  RH  033%=      5-min Rain = 0
KAM1 202012Z 22009KT 13/M03 A3008 RMK A01 T01331027  RH  033%=      5-min Rain = 0
KAM1 202013Z 24008KT 13/M02 A3008 RMK A01 T01331024  RH  034%=      5-min Rain = 0
KAM1 202014Z 24008KT 14/M02 A3008 RMK A01 T01381021  RH  033%=      5-min Rain = 0
KAM1 202015Z 23012KT 14/M02 A3007 RMK A01 T01401023  RH  032%=      5-min Rain = 0
KAM1 202016Z 23008KT 14/M02 A3007 RMK A01 T01401024  RH  032%=      5-min Rain = 0
KAM1 202017Z 21011KT 14/M02 A3007 RMK A01 T01401023  RH  032%=      5-min Rain = 0
KAM1 202018Z 22010KT 14/M02 A3007 RMK A01 T01421022  RH  032%=      5-min Rain = 0
KAM1 202019Z 22008KT 15/M02 A3007 RMK A01 T01451019  RH  032%=      5-min Rain = 0
KAM1 202020Z 22008KT 15/M02 A3007 RMK A01 T01461022  RH  031%=      5-min Rain = 0
KAM1 202021Z 23009KT 15/M02 A3007 RMK A01 T01451022  RH  031%=      5-min Rain = 0
KAM1 202022Z 23009KT 15/M02 A3007 RMK A01 T01451021  RH  032%=      5-min Rain = 0
KAM1 202023Z 22010KT 15/M02 A3007 RMK A01 T01481018  RH  032%=      5-min Rain = 0
KAM1 202024Z 21010KT 15/M02 A3007 RMK A01 T01501020  RH  031%=      5-min Rain = 0
KAM1 202025Z 21009KT 15/M02 A3006 RMK A01 T01501021  RH  031%=      5-min Rain = 0
KAM1 202026Z 21009KT 15/M02 A3006 RMK A01 T01531018  RH  031%=      5-min Rain = 0
KAM1 202027Z 20010KT 15/M02 A3006 RMK A01 T01541020  RH  030%=      5-min Rain = 0
KAM1 202028Z 22010KT 15/M02 A3006 RMK A01 T01541022  RH  030%=      5-min Rain = 0
KAM1 202029Z 24010KT 15/M03 A3006 RMK A01 T01511026  RH  029%=      5-min Rain = 0
KAM1 202030Z 23010KT 15/M03 A3006 RMK A01 T01501025  RH  030%=      5-min Rain = 0
KAM1 202031Z 24011KT 15/M02 A3006 RMK A01 T01501024  RH  030%=      5-min Rain = 0
KAM1 202032Z 22010KT 15/M03 A3006 RMK A01 T01491027  RH  030%=      5-min Rain = 0
KAM1 202033Z 21009KT 15/M03 A3006 RMK A01 T01471025  RH  030%=      5-min Rain = 0
KAM1 202034Z 21010KT 15/M03 A3006 RMK A01 T01481026  RH  030%=      5-min Rain = 0
KAM1 202035Z 23008KT 15/M03 A3006 RMK A01 T01471027  RH  030%=      5-min Rain = 0
KAM1 202036Z 23013KT 15/M03 A3006 RMK A01 T01461028  RH  030%=      5-min Rain = 0
KAM1 202037Z 23013KT 14/M03 A3006 RMK A01 T01441032  RH  029%=      5-min Rain = 0
KAM1 202038Z 23011KT 14/M03 A3006 RMK A01 T01441032  RH  030%=      5-min Rain = 0
KAM1 202039Z 22010KT 14/M03 A3006 RMK A01 T01441030  RH  030%=      5-min Rain = 0
KAM1 202040Z 23010KT 14/M03 A3006 RMK A01 T01441029  RH  030%=      5-min Rain = 0
KAM1 202041Z 23009KT 14/M03 A3006 RMK A01 T01431030  RH  030%=      5-min Rain = 0
KAM1 202042Z 23010KT 14/M03 A3006 RMK A01 T01431027  RH  031%=      5-min Rain = 0
KAM1 202043Z 22011KT 14/M03 A3006 RMK A01 T01431028  RH  030%=      5-min Rain = 0
KAM1 202044Z 24010KT 14/M03 A3006 RMK A01 T01441028  RH  030%=      5-min Rain = 0
KAM1 202045Z 24010KT 15/M03 A3006 RMK A01 T01451029  RH  030%=      5-min Rain = 0
KAM1 202046Z 24009KT 14/M03 A3006 RMK A01 T01441031  RH  030%=      5-min Rain = 0
KAM1 202047Z 23008KT 14/M03 A3006 RMK A01 T01431031  RH  030%=      5-min Rain = 0
KAM1 202048Z 22008KT 14/M03 A3006 RMK A01 T01441028  RH  030%=      5-min Rain = 0
KAM1 202049Z 24012KT 15/M03 A3006 RMK A01 T01471026  RH  030%=      5-min Rain = 0
KAM1 202050Z 24011KT 15/M03 A3006 RMK A01 T01471030  RH  029%=      5-min Rain = 0
KAM1 202051Z 24010KT 15/M03 A3006 RMK A01 T01451031  RH  029%=      5-min Rain = 0
KAM1 202052Z 23009KT 15/M03 A3006 RMK A01 T01451030  RH  030%=      5-min Rain = 0
KAM1 202053Z 22009KT 15/M03 A3006 RMK A01 T01451030  RH  030%=      5-min Rain = 0
KAM1 202054Z 21008KT 15/M03 A3006 RMK A01 T01451029  RH  030%=      5-min Rain = 0
KAM1 202055Z 22011KT 15/M03 A3006 RMK A01 T01461029  RH  030%=      5-min Rain = 0
KAM1 202056Z 22008KT 15/M03 A3006 RMK A01 T01461028  RH  030%=      5-min Rain = 0
KAM1 202057Z 23010KT 15/M03 A3006 RMK A01 T01481026  RH  030%=      5-min Rain = 0
KAM1 202058Z 23008KT 15/M03 A3006 RMK A01 T01491028  RH  029%=      5-min Rain = 0
KAM1 202059Z 24009KT 15/M03 A3006 RMK A01 T01481030  RH  029%=      5-min Rain = 0
KAM1 202100Z 23010KT 15/M03 A3006 RMK A01 T01471031  RH  029%=      5-min Rain = 0
KAM1 202101Z 23010KT 15/M03 A3006 RMK A01 T01471030  RH  029%=      5-min Rain = 0
KAM1 202102Z 21009KT 15/M03 A3006 RMK A01 T01451031  RH  030%=      5-min Rain = 0
KAM1 202103Z 21009KT 14/M03 A3006 RMK A01 T01441031  RH  030%=      5-min Rain = 0
KAM1 202104Z 23008KT 14/M03 A3006 RMK A01 T01431030  RH  030%=      5-min Rain = 0
KAM1 202105Z 22009KT 14/M03 A3006 RMK A01 T01431029  RH  030%=      5-min Rain = 0
KAM1 202106Z 21009KT 14/M03 A3005 RMK A01 T01441029  RH  030%=      5-min Rain = 0
KAM1 202107Z 20010KT 15/M03 A3005 RMK A01 T01451027  RH  030%=      5-min Rain = 0
KAM1 202108Z 22008KT 15/M03 A3005 RMK A01 T01461027  RH  030%=      5-min Rain = 0
KAM1 202109Z 22007KT 15/M03 A3005 RMK A01 T01461027  RH  030%=      5-min Rain = 0
KAM1 202110Z 19008KT 15/M03 A3005 RMK A01 T01451028  RH  030%=      5-min Rain = 0
KAM1 202111Z 19009KT 14/M03 A3005 RMK A01 T01431029  RH  030%=      5-min Rain = 0
KAM1 202112Z 20008KT 14/M03 A3005 RMK A01 T01431027  RH  031%=      5-min Rain = 0
KAM1 202113Z 22008KT 14/M03 A3005 RMK A01 T01441027  RH  031%=      5-min Rain = 0
KAM1 202114Z 22008KT 14/M03 A3005 RMK A01 T01441028  RH  030%=      5-min Rain = 0
KAM1 202115Z 21009KT 15/M02 A3005 RMK A01 T01461024  RH  031%=      5-min Rain = 0
KAM1 202116Z 21008KT 15/M03 A3005 RMK A01 T01481025  RH  030%=      5-min Rain = 0
KAM1 202117Z 23006G12KT 15/M03 A3005 RMK A01 T01491026  RH  030%=      5-min Rain = 0
KAM1 202118Z 22009KT 15/M03 A3005 RMK A01 T01491028  RH  030%=      5-min Rain = 0
KAM1 202119Z 20009KT 15/M03 A3005 RMK A01 T01471027  RH  030%=      5-min Rain = 0
KAM1 202120Z 21010KT 15/M03 A3005 RMK A01 T01471028  RH  030%=      5-min Rain = 0
KAM1 202121Z 21006KT 15/M03 A3005 RMK A01 T01461028  RH  030%=      5-min Rain = 0
KAM1 202122Z 21010KT 15/M03 A3005 RMK A01 T01471026  RH  030%=      5-min Rain = 0
KAM1 202123Z 21009KT 15/M03 A3005 RMK A01 T01461029  RH  030%=      5-min Rain = 0
KAM1 202124Z 20010KT 15/M03 A3005 RMK A01 T01451029  RH  030%=      5-min Rain = 0
KAM1 202125Z 22008KT 15/M03 A3005 RMK A01 T01451028  RH  030%=      5-min Rain = 0
KAM1 202126Z 22007KT 15/M03 A3005 RMK A01 T01451030  RH  030%=      5-min Rain = 0
KAM1 202127Z 19009KT 14/M03 A3005 RMK A01 T01441029  RH  030%=      5-min Rain = 0
KAM1 202128Z 20010KT 15/M03 A3005 RMK A01 T01471025  RH  030%=      5-min Rain = 0
KAM1 202129Z 20008KT 15/M03 A3005 RMK A01 T01491029  RH  029%=      5-min Rain = 0
KAM1 202130Z 20008KT 15/M03 A3005 RMK A01 T01491028  RH  029%=      5-min Rain = 0
KAM1 202131Z 21008KT 15/M03 A3005 RMK A01 T01501029  RH  029%=      5-min Rain = 0
KAM1 202132Z 21009KT 15/M03 A3005 RMK A01 T01491030  RH  029%=      5-min Rain = 0
KAM1 202133Z 22008KT 15/M03 A3005 RMK A01 T01501029  RH  029%=      5-min Rain = 0
KAM1 202134Z 20007G12KT 15/M03 A3005 RMK A01 T01491031  RH  029%=      5-min Rain = 0
KAM1 202135Z 21009KT 15/M03 A3005 RMK A01 T01471030  RH  029%=      5-min Rain = 0
KAM1 202136Z 22009KT 15/M03 A3005 RMK A01 T01481027  RH  030%=      5-min Rain = 0
KAM1 202137Z 21010KT 15/M03 A3005 RMK A01 T01481029  RH  029%=      5-min Rain = 0
KAM1 202138Z 22006KT 15/M03 A3004 RMK A01 T01451030  RH  030%=      5-min Rain = 0
KAM1 202139Z 18007KT 14/M03 A3004 RMK A01 T01441028  RH  030%=      5-min Rain = 0
KAM1 202140Z 19010KT 14/M03 A3004 RMK A01 T01441029  RH  030%=      5-min Rain = 0
KAM1 202141Z 21009KT 14/M03 A3004 RMK A01 T01441030  RH  030%=      5-min Rain = 0
KAM1 202142Z 22009KT 14/M03 A3004 RMK A01 T01441029  RH  030%=      5-min Rain = 0
KAM1 202143Z 21007KT 14/M03 A3004 RMK A01 T01441030  RH  030%=      5-min Rain = 0
KAM1 202144Z 21008KT 14/M03 A3004 RMK A01 T01441029  RH  030%=      5-min Rain = 0
KAM1 202145Z 21008KT 14/M03 A3004 RMK A01 T01441030  RH  030%=      5-min Rain = 0
KAM1 202146Z 22009KT 15/M03 A3004 RMK A01 T01451030  RH  030%=      5-min Rain = 0
KAM1 202147Z 21008KT 15/M03 A3004 RMK A01 T01451030  RH  030%=      5-min Rain = 0
KAM1 202148Z 21009KT 15/M03 A3004 RMK A01 T01461029  RH  030%=      5-min Rain = 0
KAM1 202149Z 21009KT 15/M03 A3004 RMK A01 T01471028  RH  030%=      5-min Rain = 0
KAM1 202150Z 21010KT 15/M03 A3004 RMK A01 T01461029  RH  030%=      5-min Rain = 0
KAM1 202151Z 20008KT 15/M03 A3004 RMK A01 T01461029  RH  030%=      5-min Rain = 0
KAM1 202152Z 20007KT 15/M03 A3004 RMK A01 T01471030  RH  029%=      5-min Rain = 0
KAM1 202153Z 20007KT 15/M03 A3004 RMK A01 T01461030  RH  029%=      5-min Rain = 0
KAM1 202154Z 21010KT 15/M03 A3004 RMK A01 T01481028  RH  030%=      5-min Rain = 0
KAM1 202155Z 22009KT 15/M03 A3004 RMK A01 T01481032  RH  029%=      5-min Rain = 0
KAM1 202156Z 23008KT 15/M03 A3004 RMK A01 T01471032  RH  029%=      5-min Rain = 0
KAM1 202157Z 21008KT 15/M03 A3005 RMK A01 T01471032  RH  029%=      5-min Rain = 0
KAM1 202158Z 21009KT 15/M03 A3004 RMK A01 T01471031  RH  029%=      5-min Rain = 0
KAM1 202159Z 22008KT 15/M03 A3004 RMK A01 T01481031  RH  029%=      5-min Rain = 0
KAM1 202200Z 22010KT 15/M03 A3004 RMK A01 T01471033  RH  029%=      5-min Rain = 0
KAM1 202201Z 23009KT 15/M03 A3004 RMK A01 T01461032  RH  029%=      5-min Rain = 0
KAM1 202202Z 21009KT 15/M03 A3004 RMK A01 T01471030  RH  029%=      5-min Rain = 0
KAM1 202203Z 22010KT 15/M03 A3004 RMK A01 T01491030  RH  029%=      5-min Rain = 0
KAM1 202204Z 22007KT 15/M03 A3004 RMK A01 T01491031  RH  029%=      5-min Rain = 0
KAM1 202205Z 21008KT 15/M03 A3004 RMK A01 T01491030  RH  029%=      5-min Rain = 0
KAM1 202206Z 22009KT 15/M03 A3004 RMK A01 T01491031  RH  029%=      5-min Rain = 0
KAM1 202207Z 21011KT 15/M03 A3004 RMK A01 T01491030  RH  029%=      5-min Rain = 0
KAM1 202208Z 21010KT 15/M03 A3004 RMK A01 T01481031  RH  029%=      5-min Rain = 0
KAM1 202209Z 22008KT 15/M03 A3004 RMK A01 T01461031  RH  029%=      5-min Rain = 0
KAM1 202210Z 22009KT 14/M03 A3004 RMK A01 T01441031  RH  030%=      5-min Rain = 0
KAM1 202211Z 21009KT 14/M03 A3004 RMK A01 T01431031  RH  030%=      5-min Rain = 0
KAM1 202212Z 21009KT 14/M03 A3004 RMK A01 T01421031  RH  030%=      5-min Rain = 0
KAM1 202213Z 22009KT 14/M03 A3004 RMK A01 T01421031  RH  030%=      5-min Rain = 0
KAM1 202214Z 21010KT 14/M03 A3004 RMK A01 T01411031  RH  030%=      5-min Rain = 0
KAM1 202215Z 20008KT 14/M03 A3004 RMK A01 T01401032  RH  030%=      5-min Rain = 0
KAM1 202216Z 19010KT 14/M03 A3004 RMK A01 T01401030  RH  031%=      5-min Rain = 0
KAM1 202217Z 20009KT 14/M03 A3004 RMK A01 T01401029  RH  031%=      5-min Rain = 0
KAM1 202218Z 20007KT 14/M03 A3004 RMK A01 T01411029  RH  031%=      5-min Rain = 0
KAM1 202219Z 20007KT 14/M03 A3004 RMK A01 T01421029  RH  031%=      5-min Rain = 0
KAM1 202220Z 21007KT 14/M03 A3004 RMK A01 T01431029  RH  030%=      5-min Rain = 0
KAM1 202221Z 19008KT 14/M03 A3004 RMK A01 T01431029  RH  030%=      5-min Rain = 0
KAM1 202222Z 20009KT 15/M03 A3004 RMK A01 T01451029  RH  030%=      5-min Rain = 0
KAM1 202223Z 20007KT 15/M03 A3004 RMK A01 T01471028  RH  030%=      5-min Rain = 0
KAM1 202224Z 21008KT 15/M03 A3004 RMK A01 T01491027  RH  030%=      5-min Rain = 0
KAM1 202225Z 20009KT 15/M03 A3004 RMK A01 T01501030  RH  029%=      5-min Rain = 0
KAM1 202226Z 20009KT 15/M03 A3004 RMK A01 T01491030  RH  029%=      5-min Rain = 0
KAM1 202227Z 20008KT 15/M03 A3004 RMK A01 T01491029  RH  029%=      5-min Rain = 0
KAM1 202228Z 20008KT 15/M03 A3004 RMK A01 T01491029  RH  029%=      5-min Rain = 0
KAM1 202229Z 20007KT 15/M03 A3004 RMK A01 T01491029  RH  029%=      5-min Rain = 0
KAM1 202230Z 21006KT 15/M03 A3004 RMK A01 T01491029  RH  029%=      5-min Rain = 0
KAM1 202231Z 21007KT 15/M03 A3004 RMK A01 T01501028  RH  029%=      5-min Rain = 0
KAM1 202232Z 22008KT 15/M03 A3004 RMK A01 T01501029  RH  029%=      5-min Rain = 0
KAM1 202233Z 21007KT 15/M03 A3004 RMK A01 T01501030  RH  029%=      5-min Rain = 0
KAM1 202234Z 21007KT 15/M03 A3004 RMK A01 T01481031  RH  029%=      5-min Rain = 0
KAM1 202235Z 20006KT 15/M03 A3004 RMK A01 T01471031  RH  029%=      5-min Rain = 0
KAM1 202236Z 20009KT 15/M03 A3004 RMK A01 T01461032  RH  029%=      5-min Rain = 0
KAM1 202237Z 20008KT 14/M03 A3004 RMK A01 T01431034  RH  029%=      5-min Rain = 0
KAM1 202238Z 20006KT 14/M03 A3004 RMK A01 T01421032  RH  030%=      5-min Rain = 0
KAM1 202239Z 21007KT 14/M03 A3004 RMK A01 T01421031  RH  030%=      5-min Rain = 0
KAM1 202240Z 21009KT 14/M03 A3004 RMK A01 T01431031  RH  030%=      5-min Rain = 0
KAM1 202241Z 21008KT 14/M03 A3004 RMK A01 T01431032  RH  030%=      5-min Rain = 0
KAM1 202242Z 20007KT 14/M03 A3004 RMK A01 T01421032  RH  030%=      5-min Rain = 0
KAM1 202243Z 21008KT 14/M03 A3004 RMK A01 T01411032  RH  030%=      5-min Rain = 0
KAM1 202244Z 20008KT 14/M03 A3004 RMK A01 T01401032  RH  030%=      5-min Rain = 0
KAM1 202245Z 19008KT 14/M03 A3004 RMK A01 T01401032  RH  030%=      5-min Rain = 0
KAM1 202246Z 20007KT 14/M03 A3004 RMK A01 T01391033  RH  030%=      5-min Rain = 0
KAM1 202247Z 21008KT 14/M03 A3004 RMK A01 T01391031  RH  031%=      5-min Rain = 0
KAM1 202248Z 21009KT 14/M03 A3004 RMK A01 T01381031  RH  031%=      5-min Rain = 0
KAM1 202249Z 22009KT 14/M03 A3004 RMK A01 T01381032  RH  031%=      5-min Rain = 0
KAM1 202250Z 22008KT 14/M03 A3004 RMK A01 T01381031  RH  031%=      5-min Rain = 0
KAM1 202251Z 21008KT 14/M03 A3004 RMK A01 T01381031  RH  031%=      5-min Rain = 0
KAM1 202252Z 21007KT 14/M03 A3004 RMK A01 T01381032  RH  031%=      5-min Rain = 0
KAM1 202253Z 21008KT 14/M03 A3004 RMK A01 T01371031  RH  031%=      5-min Rain = 0
KAM1 202254Z 20007KT 14/M03 A3004 RMK A01 T01361031  RH  031%=      5-min Rain = 0
KAM1 202255Z 21006KT 14/M03 A3004 RMK A01 T01361031  RH  031%=      5-min Rain = 0
KAM1 202256Z 20007KT 14/M03 A3004 RMK A01 T01351031  RH  031%=      5-min Rain = 0
KAM1 202257Z 20006KT 14/M03 A3004 RMK A01 T01351031  RH  031%=      5-min Rain = 0
KAM1 202258Z 19005KT 13/M03 A3004 RMK A01 T01341031  RH  032%=      5-min Rain = 0
KAM1 202259Z 19005KT 13/M03 A3004 RMK A01 T01341030  RH  032%=      5-min Rain = 0
KAM1 202300Z 19005KT 13/M03 A3004 RMK A01 T01331029  RH  032%=      5-min Rain = 0
KAM1 202301Z 19006KT 13/M03 A3004 RMK A01 T01331029  RH  032%=      5-min Rain = 0
KAM1 202302Z 18005KT 13/M03 A3004 RMK A01 T01321029  RH  033%=      5-min Rain = 0
KAM1 202303Z 19005KT 13/M03 A3003 RMK A01 T01311028  RH  033%=      5-min Rain = 0
KAM1 202304Z 20004KT 13/M03 A3003 RMK A01 T01311028  RH  033%=      5-min Rain = 0
KAM1 202305Z 19004KT 13/M03 A3003 RMK A01 T01301028  RH  033%=      5-min Rain = 0
KAM1 202306Z 19005KT 13/M03 A3003 RMK A01 T01301028  RH  033%=      5-min Rain = 0
KAM1 202307Z 19005KT 13/M03 A3003 RMK A01 T01301028  RH  033%=      5-min Rain = 0
KAM1 202308Z 19005KT 13/M03 A3003 RMK A01 T01301028  RH  033%=      5-min Rain = 0
KAM1 202309Z 20006KT 13/M03 A3003 RMK A01 T01301027  RH  033%=      5-min Rain = 0
KAM1 202310Z 21006KT 13/M03 A3003 RMK A01 T01301028  RH  033%=      5-min Rain = 0
KAM1 202311Z 20005KT 13/M03 A3003 RMK A01 T01301028  RH  033%=      5-min Rain = 0
KAM1 202312Z 20005KT 13/M03 A3003 RMK A01 T01311028  RH  033%=      5-min Rain = 0
KAM1 202313Z 20005KT 13/M03 A3003 RMK A01 T01311027  RH  033%=      5-min Rain = 0
KAM1 202314Z 20004KT 13/M03 A3003 RMK A01 T01311026  RH  033%=      5-min Rain = 0
KAM1 202315Z 20005KT 13/M03 A3003 RMK A01 T01311026  RH  033%=      5-min Rain = 0
KAM1 202316Z 19004KT 13/M03 A3003 RMK A01 T01311027  RH  033%=      5-min Rain = 0
KAM1 202317Z 20004KT 13/M03 A3003 RMK A01 T01301026  RH  034%=      5-min Rain = 0
KAM1 202318Z 20005KT 13/M03 A3003 RMK A01 T01301026  RH  034%=      5-min Rain = 0
KAM1 202319Z 19004KT 13/M03 A3003 RMK A01 T01291027  RH  034%=      5-min Rain = 0
KAM1 202320Z 19004KT 13/M03 A3003 RMK A01 T01281027  RH  034%=      5-min Rain = 0
KAM1 202321Z 19004KT 13/M03 A3003 RMK A01 T01281027  RH  034%=      5-min Rain = 0
KAM1 202322Z 19004KT 13/M03 A3003 RMK A01 T01271027  RH  034%=      5-min Rain = 0
KAM1 202323Z 19004KT 13/M03 A3003 RMK A01 T01261026  RH  034%=      5-min Rain = 0
KAM1 202324Z 19004KT 13/M03 A3003 RMK A01 T01251027  RH  035%=      5-min Rain = 0
KAM1 202325Z 18005KT 12/M03 A3003 RMK A01 T01241027  RH  035%=      5-min Rain = 0
KAM1 202326Z 19005KT 12/M03 A3003 RMK A01 T01231027  RH  035%=      5-min Rain = 0
KAM1 202327Z 18004KT 12/M03 A3003 RMK A01 T01221028  RH  035%=      5-min Rain = 0
KAM1 202328Z 18004KT 12/M03 A3003 RMK A01 T01211027  RH  035%=      5-min Rain = 0
KAM1 202329Z 18004KT 12/M03 A3003 RMK A01 T01201028  RH  036%=      5-min Rain = 0
KAM1 202330Z 18005KT 12/M03 A3003 RMK A01 T01191028  RH  036%=      5-min Rain = 0
KAM1 202331Z 18005KT 12/M03 A3003 RMK A01 T01181028  RH  036%=      5-min Rain = 0
KAM1 202332Z 18005KT 12/M03 A3003 RMK A01 T01171028  RH  036%=      5-min Rain = 0
KAM1 202333Z 18006KT 12/M03 A3003 RMK A01 T01161027  RH  037%=      5-min Rain = 0
KAM1 202334Z 17006KT 12/M03 A3003 RMK A01 T01151027  RH  037%=      5-min Rain = 0
KAM1 202335Z 17006KT 11/M03 A3003 RMK A01 T01141027  RH  037%=      5-min Rain = 0
KAM1 202336Z 18006KT 11/M03 A3003 RMK A01 T01131028  RH  037%=      5-min Rain = 0
KAM1 202337Z 18006KT 11/M03 A3003 RMK A01 T01111028  RH  038%=      5-min Rain = 0
KAM1 202338Z 18006KT 11/M03 A3003 RMK A01 T01101028  RH  038%=      5-min Rain = 0
KAM1 202339Z 18006KT 11/M03 A3003 RMK A01 T01091029  RH  038%=      5-min Rain = 0
KAM1 202340Z 18006KT 11/M03 A3003 RMK A01 T01081029  RH  038%=      5-min Rain = 0
KAM1 202341Z 17006KT 11/M03 A3003 RMK A01 T01071029  RH  038%=      5-min Rain = 0
KAM1 202342Z 17006KT 11/M03 A3003 RMK A01 T01061029  RH  039%=      5-min Rain = 0
KAM1 202343Z 17006KT 11/M03 A3003 RMK A01 T01051029  RH  039%=      5-min Rain = 0
KAM1 202344Z 17006KT 10/M03 A3003 RMK A01 T01041029  RH  039%=      5-min Rain = 0
KAM1 202345Z 17006KT 10/M03 A3003 RMK A01 T01031029  RH  039%=      5-min Rain = 0
KAM1 202346Z 17006KT 10/M03 A3003 RMK A01 T01021029  RH  040%=      5-min Rain = 0
KAM1 202347Z 17006KT 10/M03 A3003 RMK A01 T01021029  RH  040%=      5-min Rain = 0
KAM1 202348Z 17006KT 10/M03 A3003 RMK A01 T01011029  RH  040%=      5-min Rain = 0
KAM1 202349Z 16005KT 10/M03 A3003 RMK A01 T01001028  RH  040%=      5-min Rain = 0
KAM1 202350Z 16006KT 10/M03 A3002 RMK A01 T01001028  RH  041%=      5-min Rain = 0
KAM1 202351Z 16006KT 10/M03 A3002 RMK A01 T01001027  RH  041%=      5-min Rain = 0
KAM1 202352Z 16005KT 10/M03 A3002 RMK A01 T00991027  RH  041%=      5-min Rain = 0
KAM1 202353Z 15006KT 10/M03 A3002 RMK A01 T00991026  RH  041%=      5-min Rain = 0
KAM1 202354Z 15006KT 10/M03 A3002 RMK A01 T00981026  RH  042%=      5-min Rain = 0
KAM1 202355Z 15006KT 10/M03 A3002 RMK A01 T00971027  RH  042%=      5-min Rain = 0
KAM1 202356Z 15006KT 10/M03 A3002 RMK A01 T00961028  RH  042%=      5-min Rain = 0
KAM1 202357Z 15006KT 10/M03 A3002 RMK A01 T00961029  RH  041%=      5-min Rain = 0
KAM1 202358Z 15006KT 10/M03 A3002 RMK A01 T00961029  RH  041%=      5-min Rain = 0
KAM1 202359Z 15006KT 10/M03 A3002 RMK A01 T00961029  RH  041%=      5-min Rain = 0
KAM1 210000Z 15006KT 10/M03 A3002 RMK A01 T00961029  RH  041%=      5-min Rain = 0
KAM1 210001Z 15006KT 10/M03 A3002 RMK A01 T00951030  RH  041%=      5-min Rain = 0
KAM1 210002Z 15006KT 09/M03 A3002 RMK A01 T00941031  RH  041%=      5-min Rain = 0
KAM1 210003Z 15005KT 09/M03 A3002 RMK A01 T00931032  RH  041%=      5-min Rain = 0
KAM1 210004Z 14005KT 09/M03 A3002 RMK A01 T00931032  RH  041%=      5-min Rain = 0
KAM1 210005Z 15005KT 09/M03 A3002 RMK A01 T00911033  RH  041%=      5-min Rain = 0
KAM1 210006Z 14005KT 09/M03 A3002 RMK A01 T00911033  RH  042%=      5-min Rain = 0
KAM1 210007Z 14005KT 09/M03 A3002 RMK A01 T00901032  RH  042%=      5-min Rain = 0
KAM1 210008Z 14005KT 09/M03 A3002 RMK A01 T00891031  RH  042%=      5-min Rain = 0
KAM1 210009Z 14005KT 09/M03 A3002 RMK A01 T00891030  RH  043%=      5-min Rain = 0
KAM1 210010Z 14005KT 09/M03 A3002 RMK A01 T00881027  RH  044%=      5-min Rain = 0
KAM1 210011Z 14005KT 09/M03 A3002 RMK A01 T00881026  RH  045%=      5-min Rain = 0
KAM1 210012Z 14005KT 09/M03 A3002 RMK A01 T00871027  RH  045%=      5-min Rain = 0
KAM1 210013Z 13005KT 09/M03 A3002 RMK A01 T00861029  RH  044%=      5-min Rain = 0
KAM1 210014Z 13005KT 08/M03 A3002 RMK A01 T00841031  RH  044%=      5-min Rain = 0
KAM1 210015Z 13006KT 08/M03 A3002 RMK A01 T00821033  RH  044%=      5-min Rain = 0
KAM1 210016Z 13006KT 08/M04 A3002 RMK A01 T00781036  RH  044%=      5-min Rain = 0
KAM1 210017Z 13006KT 08/M04 A3002 RMK A01 T00751038  RH  045%=      5-min Rain = 0
KAM1 210018Z 13006KT 07/M04 A3002 RMK A01 T00721039  RH  045%=      5-min Rain = 0
KAM1 210019Z 14007KT 07/M04 A3002 RMK A01 T00701039  RH  046%=      5-min Rain = 0
KAM1 210020Z 14007KT 07/M04 A3002 RMK A01 T00691039  RH  046%=      5-min Rain = 0
KAM1 210021Z 14007KT 07/M04 A3002 RMK A01 T00691038  RH  046%=      5-min Rain = 0
KAM1 210022Z 14007KT 07/M04 A3002 RMK A01 T00681038  RH  047%=      5-min Rain = 0
KAM1 210023Z 14007KT 07/M04 A3002 RMK A01 T00671039  RH  047%=      5-min Rain = 0
KAM1 210024Z 14006KT 07/M04 A3002 RMK A01 T00661039  RH  047%=      5-min Rain = 0
KAM1 210025Z 14006KT 07/M04 A3002 RMK A01 T00651038  RH  048%=      5-min Rain = 0
KAM1 210026Z 13007KT 06/M04 A3002 RMK A01 T00641037  RH  048%=      5-min Rain = 0
KAM1 210027Z 13006KT 06/M04 A3002 RMK A01 T00641037  RH  048%=      5-min Rain = 0
KAM1 210028Z 14007KT 06/M04 A3002 RMK A01 T00641037  RH  048%=      5-min Rain = 0
KAM1 210029Z 14007KT 06/M04 A3002 RMK A01 T00641037  RH  049%=      5-min Rain = 0
KAM1 210030Z 13007KT 06/M04 A3002 RMK A01 T00641036  RH  049%=      5-min Rain = 0
KAM1 210031Z 14007KT 06/M04 A3002 RMK A01 T00641036  RH  049%=      5-min Rain = 0
KAM1 210032Z 13006KT 06/M04 A3002 RMK A01 T00641036  RH  049%=      5-min Rain = 0
KAM1 210033Z 13007KT 06/M04 A3002 RMK A01 T00641035  RH  049%=      5-min Rain = 0
KAM1 210034Z 13007KT 06/M04 A3002 RMK A01 T00641036  RH  049%=      5-min Rain = 0
KAM1 210035Z 14007KT 06/M04 A3002 RMK A01 T00641036  RH  049%=      5-min Rain = 0
KAM1 210036Z 13007KT 06/M04 A3002 RMK A01 T00631036  RH  049%=      5-min Rain = 0
KAM1 210037Z 13007KT 06/M04 A3002 RMK A01 T00631037  RH  049%=      5-min Rain = 0
KAM1 210038Z 13007KT 06/M04 A3002 RMK A01 T00621038  RH  049%=      5-min Rain = 0
KAM1 210039Z 14008KT 06/M04 A3002 RMK A01 T00611038  RH  049%=      5-min Rain = 0
KAM1 210040Z 14008KT 06/M04 A3002 RMK A01 T00601039  RH  049%=      5-min Rain = 0
KAM1 210041Z 14008KT 06/M04 A3002 RMK A01 T00591038  RH  050%=      5-min Rain = 0
KAM1 210042Z 14008KT 06/M04 A3002 RMK A01 T00591037  RH  050%=      5-min Rain = 0
KAM1 210043Z 14007KT 06/M04 A3002 RMK A01 T00591036  RH  050%=      5-min Rain = 0
KAM1 210044Z 14007KT 06/M03 A3002 RMK A01 T00611034  RH  050%=      5-min Rain = 0
KAM1 210045Z 14007KT 06/M03 A3002 RMK A01 T00631034  RH  050%=      5-min Rain = 0
KAM1 210046Z 14007KT 07/M03 A3002 RMK A01 T00651034  RH  049%=      5-min Rain = 0
KAM1 210047Z 14007KT 07/M03 A3002 RMK A01 T00661034  RH  049%=      5-min Rain = 0
KAM1 210048Z 14006KT 07/M03 A3002 RMK A01 T00671034  RH  049%=      5-min Rain = 0
KAM1 210049Z 14006KT 07/M04 A3002 RMK A01 T00671035  RH  048%=      5-min Rain = 0
KAM1 210050Z 14006KT 07/M04 A3002 RMK A01 T00671035  RH  048%=      5-min Rain = 0
KAM1 210051Z 14006KT 07/M04 A3002 RMK A01 T00671036  RH  048%=      5-min Rain = 0
KAM1 210052Z 14006KT 07/M04 A3002 RMK A01 T00661036  RH  048%=      5-min Rain = 0
KAM1 210053Z 14006KT 07/M04 A3002 RMK A01 T00661036  RH  048%=      5-min Rain = 0
KAM1 210054Z 14007KT 07/M04 A3002 RMK A01 T00671035  RH  048%=      5-min Rain = 0
KAM1 210055Z 14006KT 07/M04 A3002 RMK A01 T00671035  RH  048%=      5-min Rain = 0
KAM1 210056Z 14007KT 07/M04 A3002 RMK A01 T00671035  RH  048%=      5-min Rain = 0
KAM1 210057Z 14007KT 07/M04 A3002 RMK A01 T00661035  RH  048%=      5-min Rain = 0
KAM1 210058Z 14007KT 07/M04 A3002 RMK A01 T00661035  RH  049%=      5-min Rain = 0
KAM1 210059Z 14007KT 06/M04 A3002 RMK A01 T00631035  RH  049%=      5-min Rain = 0
KAM1 210100Z 14007KT 06/M04 A3002 RMK A01 T00611035  RH  050%=      5-min Rain = 0
KAM1 210101Z 14006KT 06/M04 A3002 RMK A01 T00591035  RH  051%=      5-min Rain = 0
KAM1 210102Z 14006KT 06/M04 A3002 RMK A01 T00581035  RH  051%=      5-min Rain = 0
KAM1 210103Z 14006KT 06/M04 A3002 RMK A01 T00571035  RH  052%=      5-min Rain = 0
KAM1 210104Z 14006KT 06/M04 A3002 RMK A01 T00571035  RH  052%=      5-min Rain = 0
KAM1 210105Z 14006KT 06/M04 A3002 RMK A01 T00561036  RH  051%=      5-min Rain = 0
KAM1 210106Z 14006KT 06/M04 A3001 RMK A01 T00551037  RH  051%=      5-min Rain = 0
KAM1 210107Z 14007KT 06/M04 A3001 RMK A01 T00551037  RH  052%=      5-min Rain = 0
KAM1 210108Z 14007KT 06/M04 A3001 RMK A01 T00551037  RH  052%=      5-min Rain = 0
KAM1 210109Z 14007KT 06/M04 A3001 RMK A01 T00551037  RH  052%=      5-min Rain = 0
KAM1 210110Z 14007KT 06/M04 A3001 RMK A01 T00551036  RH  052%=      5-min Rain = 0
KAM1 210111Z 14006KT 06/M04 A3001 RMK A01 T00551036  RH  052%=      5-min Rain = 0
KAM1 210112Z 14007KT 06/M04 A3001 RMK A01 T00551036  RH  052%=      5-min Rain = 0
KAM1 210113Z 14007KT 06/M04 A3001 RMK A01 T00551036  RH  052%=      5-min Rain = 0
KAM1 210114Z 14007KT 05/M04 A3001 RMK A01 T00531037  RH  052%=      5-min Rain = 0
KAM1 210115Z 13007KT 05/M04 A3001 RMK A01 T00511039  RH  052%=      5-min Rain = 0
KAM1 210116Z 13007KT 05/M04 A3001 RMK A01 T00501040  RH  052%=      5-min Rain = 0
KAM1 210117Z 14007KT 05/M04 A3001 RMK A01 T00491041  RH  052%=      5-min Rain = 0
KAM1 210118Z 14007KT 05/M04 A3001 RMK A01 T00481041  RH  052%=      5-min Rain = 0
KAM1 210119Z 14007KT 05/M04 A3001 RMK A01 T00481041  RH  053%=      5-min Rain = 0
KAM1 210120Z 14007KT 05/M04 A3001 RMK A01 T00481041  RH  052%=      5-min Rain = 0
KAM1 210121Z 14007KT 05/M04 A3001 RMK A01 T00481041  RH  052%=      5-min Rain = 0
KAM1 210122Z 14007KT 05/M04 A3001 RMK A01 T00471042  RH  052%=      5-min Rain = 0
KAM1 210123Z 14006KT 05/M04 A3001 RMK A01 T00461042  RH  053%=      5-min Rain = 0
KAM1 210124Z 14006KT 05/M04 A3001 RMK A01 T00451042  RH  053%=      5-min Rain = 0
KAM1 210125Z 14006KT 05/M04 A3001 RMK A01 T00461042  RH  053%=      5-min Rain = 0
KAM1 210126Z 14006KT 05/M04 A3001 RMK A01 T00471040  RH  053%=      5-min Rain = 0
KAM1 210127Z 14006KT 05/M04 A3001 RMK A01 T00471040  RH  053%=      5-min Rain = 0
KAM1 210128Z 14006KT 05/M04 A3001 RMK A01 T00481040  RH  053%=      5-min Rain = 0
KAM1 210129Z 14006KT 05/M04 A3001 RMK A01 T00481040  RH  053%=      5-min Rain = 0
KAM1 210130Z 14006KT 05/M04 A3001 RMK A01 T00481039  RH  053%=      5-min Rain = 0
KAM1 210131Z 14006KT 05/M04 A3001 RMK A01 T00491039  RH  053%=      5-min Rain = 0
KAM1 210132Z 14006KT 05/M04 A3001 RMK A01 T00491038  RH  053%=      5-min Rain = 0
KAM1 210133Z 14006KT 05/M04 A3001 RMK A01 T00491037  RH  053%=      5-min Rain = 0
KAM1 210134Z 14007KT 05/M04 A3001 RMK A01 T00491037  RH  053%=      5-min Rain = 0
KAM1 210135Z 15007KT 05/M04 A3001 RMK A01 T00491038  RH  054%=      5-min Rain = 0
KAM1 210136Z 14007KT 05/M04 A3001 RMK A01 T00481038  RH  054%=      5-min Rain = 0
KAM1 210137Z 14007KT 05/M04 A3001 RMK A01 T00481038  RH  054%=      5-min Rain = 0
KAM1 210138Z 14007KT 05/M04 A3001 RMK A01 T00481038  RH  054%=      5-min Rain = 0
KAM1 210139Z 14007KT 05/M04 A3001 RMK A01 T00491038  RH  054%=      5-min Rain = 0
KAM1 210140Z 14007KT 05/M04 A3001 RMK A01 T00491037  RH  054%=      5-min Rain = 0
KAM1 210141Z 14007KT 05/M04 A3001 RMK A01 T00511036  RH  054%=      5-min Rain = 0
KAM1 210142Z 14007KT 05/M04 A3001 RMK A01 T00521035  RH  053%=      5-min Rain = 0
KAM1 210143Z 14007KT 05/M03 A3001 RMK A01 T00531034  RH  053%=      5-min Rain = 0
KAM1 210144Z 14007KT 05/M03 A3001 RMK A01 T00541034  RH  053%=      5-min Rain = 0
KAM1 210145Z 14007KT 06/M03 A3001 RMK A01 T00551034  RH  053%=      5-min Rain = 0
KAM1 210146Z 14007KT 06/M03 A3001 RMK A01 T00561034  RH  052%=      5-min Rain = 0
KAM1 210147Z 14007KT 06/M03 A3001 RMK A01 T00561034  RH  052%=      5-min Rain = 0
KAM1 210148Z 14007KT 06/M03 A3001 RMK A01 T00571034  RH  052%=      5-min Rain = 0
KAM1 210149Z 14007KT 06/M03 A30 RMK A01 T00571034  RH  052%=      5-min Rain = 0
KAM1 210150Z 14007KT 06/M03 A30 RMK A01 T00571034  RH  052%=      5-min Rain = 0
KAM1 210151Z 14007KT 06/M03 A30 RMK A01 T00571034  RH  052%=      5-min Rain = 0
KAM1 210152Z 14008KT 06/M03 A30 RMK A01 T00581034  RH  052%=      5-min Rain = 0
KAM1 210153Z 14008KT 06/M03 A30 RMK A01 T00591034  RH  051%=      5-min Rain = 0
KAM1 210154Z 14008KT 06/M03 A30 RMK A01 T00601033  RH  051%=      5-min Rain = 0
KAM1 210155Z 14007KT 06/M03 A30 RMK A01 T00621032  RH  051%=      5-min Rain = 0
KAM1 210156Z 14007KT 06/M03 A30 RMK A01 T00641032  RH  050%=      5-min Rain = 0
KAM1 210157Z 14007KT 07/M03 A30 RMK A01 T00671031  RH  050%=      5-min Rain = 0
KAM1 210158Z 14007KT 07/M03 A30 RMK A01 T00681031  RH  049%=      5-min Rain = 0
KAM1 210159Z 14007KT 07/M03 A30 RMK A01 T00681032  RH  049%=      5-min Rain = 0
KAM1 210200Z 14007KT 07/M03 A30 RMK A01 T00681031  RH  049%=      5-min Rain = 0
KAM1 210201Z 14008KT 07/M03 A30 RMK A01 T00691032  RH  049%=      5-min Rain = 0
KAM1 210202Z 14007KT 07/M03 A30 RMK A01 T00691032  RH  049%=      5-min Rain = 0
KAM1 210203Z 14007KT 07/M03 A30 RMK A01 T00701032  RH  048%=      5-min Rain = 0
KAM1 210204Z 14007KT 07/M03 A30 RMK A01 T00701032  RH  048%=      5-min Rain = 0
KAM1 210205Z 14007KT 07/M03 A30 RMK A01 T00701032  RH  048%=      5-min Rain = 0
KAM1 210206Z 14006KT 07/M03 A30 RMK A01 T00691032  RH  049%=      5-min Rain = 0
KAM1 210207Z 14006KT 07/M03 A30 RMK A01 T00671032  RH  049%=      5-min Rain = 0
KAM1 210208Z 14006KT 06/M04 A30 RMK A01 T00641037  RH  049%=      5-min Rain = 0
KAM1 210209Z 14006KT 06/M04 A30 RMK A01 T00581040  RH  049%=      5-min Rain = 0
KAM1 210210Z 14006KT 05/M04 A30 RMK A01 T00541042  RH  050%=      5-min Rain = 0
KAM1 210211Z 14006KT 05/M04 A30 RMK A01 T00511042  RH  051%=      5-min Rain = 0
KAM1 210212Z 14006KT 05/M04 A30 RMK A01 T00481044  RH  051%=      5-min Rain = 0
KAM1 210213Z 14006KT 05/M04 A30 RMK A01 T00451044  RH  052%=      5-min Rain = 0
KAM1 210214Z 14007KT 04/M04 A30 RMK A01 T00431044  RH  053%=      5-min Rain = 0
KAM1 210215Z 14007KT 04/M04 A30 RMK A01 T00411044  RH  054%=      5-min Rain = 0
KAM1 210216Z 14006KT 04/M04 A30 RMK A01 T00411043  RH  054%=      5-min Rain = 0
KAM1 210217Z 14007KT 04/M04 A30 RMK A01 T00421042  RH  055%=      5-min Rain = 0
KAM1 210218Z 14006KT 04/M04 A30 RMK A01 T00421041  RH  054%=      5-min Rain = 0
KAM1 210219Z 14007KT 04/M04 A30 RMK A01 T00421041  RH  054%=      5-min Rain = 0
KAM1 210220Z 14007KT 04/M04 A30 RMK A01 T00431041  RH  055%=      5-min Rain = 0
KAM1 210221Z 14006KT 04/M04 A30 RMK A01 T00431041  RH  054%=      5-min Rain = 0
KAM1 210222Z 14006KT 04/M04 A30 RMK A01 T00441040  RH  054%=      5-min Rain = 0
KAM1 210223Z 14007KT 05/M04 A30 RMK A01 T00451039  RH  054%=      5-min Rain = 0
KAM1 210224Z 14006KT 05/M04 A30 RMK A01 T00461039  RH  054%=      5-min Rain = 0
KAM1 210225Z 14007KT 05/M04 A30 RMK A01 T00461039  RH  054%=      5-min Rain = 0
KAM1 210226Z 13006KT 05/M04 A30 RMK A01 T00471039  RH  054%=      5-min Rain = 0
KAM1 210227Z 13006KT 05/M04 A30 RMK A01 T00471040  RH  053%=      5-min Rain = 0
KAM1 210228Z 12006KT 05/M04 A30 RMK A01 T00451041  RH  054%=      5-min Rain = 0
KAM1 210229Z 12006KT 04/M04 A30 RMK A01 T00431042  RH  054%=      5-min Rain = 0
KAM1 210230Z 13006KT 04/M04 A30 RMK A01 T00401043  RH  055%=      5-min Rain = 0
KAM1 210231Z 13006KT 04/M04 A30 RMK A01 T00391042  RH  055%=      5-min Rain = 0
KAM1 210232Z 13006KT 04/M04 A30 RMK A01 T00391042  RH  056%=      5-min Rain = 0
KAM1 210233Z 13006KT 04/M04 A30 RMK A01 T00391041  RH  056%=      5-min Rain = 0
KAM1 210234Z 13006KT 04/M04 A30 RMK A01 T00421039  RH  056%=      5-min Rain = 0
KAM1 210235Z 13007KT 04/M04 A30 RMK A01 T00441039  RH  055%=      5-min Rain = 0
KAM1 210236Z 14008KT 05/M04 A30 RMK A01 T00461039  RH  054%=      5-min Rain = 0
KAM1 210237Z 13008KT 05/M04 A30 RMK A01 T00461040  RH  054%=      5-min Rain = 0
KAM1 210238Z 13008KT 05/M04 A30 RMK A01 T00461040  RH  054%=      5-min Rain = 0
KAM1 210239Z 12007KT 05/M04 A30 RMK A01 T00451041  RH  054%=      5-min Rain = 0
KAM1 210240Z 13007KT 04/M04 A30 RMK A01 T00441042  RH  054%=      5-min Rain = 0
KAM1 210241Z 13007KT 04/M04 A30 RMK A01 T00431041  RH  054%=      5-min Rain = 0
KAM1 210242Z 13007KT 04/M04 A30 RMK A01 T00441040  RH  054%=      5-min Rain = 0
KAM1 210243Z 14007KT 05/M04 A30 RMK A01 T00461039  RH  054%=      5-min Rain = 0
KAM1 210244Z 14006KT 05/M04 A30 RMK A01 T00481037  RH  054%=      5-min Rain = 0
KAM1 210245Z 13006KT 05/M04 A2999 RMK A01 T00501037  RH  053%=      5-min Rain = 0
KAM1 210246Z 11004KT 05/M04 A2999 RMK A01 T00491040  RH  052%=      5-min Rain = 0
KAM1 210247Z 13005KT 05/M04 A2999 RMK A01 T00451044  RH  053%=      5-min Rain = 0
KAM1 210248Z 13006KT 04/M04 A2999 RMK A01 T00421044  RH  054%=      5-min Rain = 0
KAM1 210249Z 13005KT 04/M04 A2999 RMK A01 T00401044  RH  054%=      5-min Rain = 0
KAM1 210250Z 14006KT 04/M04 A2999 RMK A01 T00381044  RH  055%=      5-min Rain = 0
KAM1 210251Z 14006KT 04/M04 A2999 RMK A01 T00381044  RH  055%=      5-min Rain = 0
KAM1 210252Z 14006KT 04/M04 A2999 RMK A01 T00371044  RH  055%=      5-min Rain = 0
KAM1 210253Z 15005KT 04/M05 A2999 RMK A01 T00361045  RH  055%=      5-min Rain = 0
KAM1 210254Z 14005KT 04/M05 A2999 RMK A01 T00351045  RH  056%=      5-min Rain = 0
KAM1 210255Z 14005KT 03/M05 A2999 RMK A01 T00331046  RH  056%=      5-min Rain = 0
KAM1 210256Z 14004KT 03/M05 A2999 RMK A01 T00321045  RH  057%=      5-min Rain = 0
KAM1 210257Z 14005KT 03/M04 A2999 RMK A01 T00321044  RH  057%=      5-min Rain = 0
KAM1 210258Z 15006KT 03/M04 A2999 RMK A01 T00331043  RH  057%=      5-min Rain = 0
KAM1 210259Z 15006KT 03/M04 A2999 RMK A01 T00341043  RH  057%=      5-min Rain = 0
KAM1 210300Z 15008KT 04/M04 A2999 RMK A01 T00351042  RH  057%=      5-min Rain = 0
KAM1 210301Z 15008KT 04/M04 A2999 RMK A01 T00381039  RH  057%=      5-min Rain = 0
KAM1 210302Z 15008KT 04/M04 A2999 RMK A01 T00421036  RH  057%=      5-min Rain = 0
KAM1 210303Z 15008KT 05/M04 A2999 RMK A01 T00461035  RH  056%=      5-min Rain = 0
KAM1 210304Z 15008KT 05/M04 A2998 RMK A01 T00481035  RH  055%=      5-min Rain = 0
KAM1 210305Z 15008KT 05/M04 A2998 RMK A01 T00491035  RH  054%=      5-min Rain = 0
KAM1 210306Z 15008KT 05/M04 A2998 RMK A01 T00511036  RH  054%=      5-min Rain = 0
KAM1 210307Z 15008KT 05/M04 A2998 RMK A01 T00511036  RH  053%=      5-min Rain = 0
KAM1 210308Z 15009KT 05/M04 A2998 RMK A01 T00511037  RH  053%=      5-min Rain = 0
KAM1 210309Z 15009KT 05/M04 A2998 RMK A01 T00521037  RH  053%=      5-min Rain = 0
KAM1 210310Z 15009KT 05/M04 A2998 RMK A01 T00531037  RH  052%=      5-min Rain = 0
KAM1 210311Z 15008KT 05/M04 A2998 RMK A01 T00541037  RH  052%=      5-min Rain = 0
KAM1 210312Z 15008KT 05/M04 A2998 RMK A01 T00541038  RH  052%=      5-min Rain = 0
KAM1 210313Z 15009KT 05/M04 A2998 RMK A01 T00541038  RH  051%=      5-min Rain = 0
KAM1 210314Z 15010KT 06/M04 A2998 RMK A01 T00551038  RH  051%=      5-min Rain = 0
KAM1 210315Z 15009KT 06/M04 A2997 RMK A01 T00581038  RH  050%=      5-min Rain = 0
KAM1 210316Z 16009KT 06/M04 A2997 RMK A01 T00601038  RH  049%=      5-min Rain = 0
KAM1 210317Z 16009KT 06/M04 A2998 RMK A01 T00611038  RH  049%=      5-min Rain = 0
KAM1 210318Z 15009KT 06/M04 A2997 RMK A01 T00611039  RH  049%=      5-min Rain = 0
KAM1 210319Z 15010KT 06/M04 A2997 RMK A01 T00611040  RH  048%=      5-min Rain = 0
KAM1 210320Z 16009KT 06/M04 A2997 RMK A01 T00631040  RH  048%=      5-min Rain = 0
KAM1 210321Z 16010KT 07/M04 A2997 RMK A01 T00651040  RH  047%=      5-min Rain = 0
KAM1 210322Z 16010KT 07/M04 A2997 RMK A01 T00651040  RH  047%=      5-min Rain = 0
KAM1 210323Z 16009KT 07/M04 A2997 RMK A01 T00661040  RH  047%=      5-min Rain = 0
KAM1 210324Z 17009KT 07/M04 A2997 RMK A01 T00671041  RH  046%=      5-min Rain = 0
KAM1 210325Z 17009KT 07/M04 A2997 RMK A01 T00681041  RH  046%=      5-min Rain = 0
KAM1 210326Z 17009KT 07/M04 A2997 RMK A01 T00691042  RH  045%=      5-min Rain = 0
KAM1 210327Z 16011KT 07/M04 A2997 RMK A01 T00711042  RH  044%=      5-min Rain = 0
KAM1 210328Z 17010KT 07/M04 A2997 RMK A01 T00721043  RH  044%=      5-min Rain = 0
KAM1 210329Z 17009KT 07/M04 A2997 RMK A01 T00721043  RH  044%=      5-min Rain = 0
KAM1 210330Z 17010KT 07/M04 A2997 RMK A01 T00721044  RH  044%=      5-min Rain = 0
KAM1 210331Z 17011KT 07/M04 A2997 RMK A01 T00721044  RH  043%=      5-min Rain = 0
KAM1 210332Z 17011KT 07/M05 A2997 RMK A01 T00721045  RH  043%=      5-min Rain = 0
KAM1 210333Z 17009KT 07/M05 A2997 RMK A01 T00711045  RH  043%=      5-min Rain = 0
KAM1 210334Z 17009KT 07/M05 A2997 RMK A01 T00711045  RH  043%=      5-min Rain = 0
KAM1 210335Z 17009KT 07/M05 A2997 RMK A01 T00701045  RH  044%=      5-min Rain = 0
KAM1 210336Z 17010KT 07/M05 A2997 RMK A01 T00691046  RH  044%=      5-min Rain = 0
KAM1 210337Z 17009KT 07/M05 A2997 RMK A01 T00681046  RH  044%=      5-min Rain = 0
KAM1 210338Z 17010KT 07/M05 A2997 RMK A01 T00671047  RH  044%=      5-min Rain = 0
KAM1 210339Z 17010KT 07/M05 A2997 RMK A01 T00671047  RH  044%=      5-min Rain = 0
KAM1 210340Z 17009KT 07/M05 A2997 RMK A01 T00671047  RH  044%=      5-min Rain = 0
KAM1 210341Z 17009KT 07/M05 A2997 RMK A01 T00661048  RH  044%=      5-min Rain = 0
KAM1 210342Z 17010KT 07/M05 A2997 RMK A01 T00661048  RH  044%=      5-min Rain = 0
KAM1 210343Z 17009G14KT 07/M05 A2997 RMK A01 T00651048  RH  044%=      5-min Rain = 0
KAM1 210344Z 17009KT 07/M05 A2997 RMK A01 T00651049  RH  044%=      5-min Rain = 0
KAM1 210345Z 17010KT 06/M05 A2997 RMK A01 T00641049  RH  044%=      5-min Rain = 0
KAM1 210346Z 17010KT 06/M05 A2996 RMK A01 T00631049  RH  044%=      5-min Rain = 0
KAM1 210347Z 17009KT 06/M05 A2996 RMK A01 T00631049  RH  044%=      5-min Rain = 0
KAM1 210348Z 17010KT 06/M05 A2997 RMK A01 T00631050  RH  044%=      5-min Rain = 0
KAM1 210349Z 17009KT 06/M05 A2997 RMK A01 T00621050  RH  044%=      5-min Rain = 0
KAM1 210350Z 17009KT 06/M05 A2997 RMK A01 T00621050  RH  045%=      5-min Rain = 0
KAM1 210351Z 17009KT 06/M05 A2997 RMK A01 T00611050  RH  045%=      5-min Rain = 0
KAM1 210352Z 17009KT 06/M05 A2997 RMK A01 T00611050  RH  045%=      5-min Rain = 0
KAM1 210353Z 17010KT 06/M05 A2996 RMK A01 T00601051  RH  045%=      5-min Rain = 0
KAM1 210354Z 17010KT 06/M05 A2996 RMK A01 T00591051  RH  045%=      5-min Rain = 0
KAM1 210355Z 17010KT 06/M05 A2996 RMK A01 T00591051  RH  045%=      5-min Rain = 0
KAM1 210356Z 17010KT 06/M05 A2996 RMK A01 T00591051  RH  045%=      5-min Rain = 0
KAM1 210357Z 17010KT 06/M05 A2996 RMK A01 T00591051  RH  045%=      5-min Rain = 0
KAM1 210358Z 18010KT 06/M05 A2996 RMK A01 T00581051  RH  045%=      5-min Rain = 0
KAM1 210359Z 17010KT 06/M05 A2996 RMK A01 T00571051  RH  046%=      5-min Rain = 0
KAM1 210400Z 18010KT 06/M05 A2996 RMK A01 T00561051  RH  046%=      5-min Rain = 0
KAM1 210401Z 18010KT 06/M05 A2996 RMK A01 T00561052  RH  046%=      5-min Rain = 0
KAM1 210402Z 18009KT 06/M05 A2996 RMK A01 T00561052  RH  046%=      5-min Rain = 0
KAM1 210403Z 18009KT 06/M05 A2996 RMK A01 T00551052  RH  046%=      5-min Rain = 0
KAM1 210404Z 18008KT 06/M05 A2996 RMK A01 T00551052  RH  046%=      5-min Rain = 0
KAM1 210405Z 18008KT 05/M05 A2996 RMK A01 T00541052  RH  046%=      5-min Rain = 0
KAM1 210406Z 18009KT 05/M05 A2996 RMK A01 T00531053  RH  046%=      5-min Rain = 0
KAM1 210407Z 18009KT 05/M05 A2996 RMK A01 T00521053  RH  047%=      5-min Rain = 0
KAM1 210408Z 18008KT 05/M05 A2996 RMK A01 T00521053  RH  047%=      5-min Rain = 0
KAM1 210409Z 18008KT 05/M05 A2996 RMK A01 T00521053  RH  047%=      5-min Rain = 0
KAM1 210410Z 18009KT 05/M05 A2996 RMK A01 T00511053  RH  047%=      5-min Rain = 0
KAM1 210411Z 18009KT 05/M05 A2996 RMK A01 T00501053  RH  047%=      5-min Rain = 0
KAM1 210412Z 18008KT 05/M05 A2996 RMK A01 T00481053  RH  048%=      5-min Rain = 0
KAM1 210413Z 18008KT 05/M05 A2996 RMK A01 T00471054  RH  048%=      5-min Rain = 0
KAM1 210414Z 18009KT 05/M05 A2996 RMK A01 T00461054  RH  048%=      5-min Rain = 0
KAM1 210415Z 18009KT 05/M05 A2996 RMK A01 T00451054  RH  049%=      5-min Rain = 0
KAM1 210416Z 18008KT 04/M06 A2996 RMK A01 T00441055  RH  049%=      5-min Rain = 0
KAM1 210417Z 18009KT 04/M06 A2996 RMK A01 T00421055  RH  049%=      5-min Rain = 0
KAM1 210418Z 18009KT 04/M06 A2996 RMK A01 T00411055  RH  050%=      5-min Rain = 0
KAM1 210419Z 18008KT 04/M06 A2996 RMK A01 T00411055  RH  050%=      5-min Rain = 0
KAM1 210420Z 18008KT 04/M06 A2996 RMK A01 T00401055  RH  050%=      5-min Rain = 0
KAM1 210421Z 18008KT 04/M06 A2996 RMK A01 T00391055  RH  050%=      5-min Rain = 0
KAM1 210422Z 18007KT 04/M06 A2996 RMK A01 T00381055  RH  051%=      5-min Rain = 0
KAM1 210423Z 18008KT 04/M06 A2996 RMK A01 T00371055  RH  051%=      5-min Rain = 0
KAM1 210424Z 18008KT 04/M06 A2997 RMK A01 T00371055  RH  051%=      5-min Rain = 0
KAM1 210425Z 18007KT 04/M06 A2997 RMK A01 T00361055  RH  051%=      5-min Rain = 0
KAM1 210426Z 18007KT 04/M06 A2997 RMK A01 T00351055  RH  051%=      5-min Rain = 0
KAM1 210427Z 18008KT 03/M06 A2997 RMK A01 T00341056  RH  052%=      5-min Rain = 0
KAM1 210428Z 18008KT 03/M06 A2997 RMK A01 T00331056  RH  052%=      5-min Rain = 0
KAM1 210429Z 18007KT 03/M06 A2997 RMK A01 T00321056  RH  052%=      5-min Rain = 0
KAM1 210430Z 18007KT 03/M06 A2997 RMK A01 T00311056  RH  053%=      5-min Rain = 0
KAM1 210431Z 18007KT 03/M06 A2997 RMK A01 T00301056  RH  053%=      5-min Rain = 0
KAM1 210432Z 18007KT 03/M06 A2996 RMK A01 T00301056  RH  053%=      5-min Rain = 0
KAM1 210433Z 18007KT 03/M06 A2996 RMK A01 T00291056  RH  053%=      5-min Rain = 0
KAM1 210434Z 18007KT 03/M06 A2997 RMK A01 T00291057  RH  053%=      5-min Rain = 0
KAM1 210435Z 18007KT 03/M06 A2997 RMK A01 T00281057  RH  054%=      5-min Rain = 0
KAM1 210436Z 18007KT 03/M06 A2997 RMK A01 T00281056  RH  054%=      5-min Rain = 0
KAM1 210437Z 18007KT 03/M06 A2997 RMK A01 T00271056  RH  054%=      5-min Rain = 0
KAM1 210438Z 18006KT 03/M06 A2996 RMK A01 T00271056  RH  054%=      5-min Rain = 0
KAM1 210439Z 18006KT 03/M06 A2996 RMK A01 T00271056  RH  054%=      5-min Rain = 0
KAM1 210440Z 18007KT 03/M06 A2996 RMK A01 T00271056  RH  054%=      5-min Rain = 0
KAM1 210441Z 19007KT 03/M06 A2996 RMK A01 T00271056  RH  054%=      5-min Rain = 0
KAM1 210442Z 18007KT 03/M06 A2996 RMK A01 T00261056  RH  055%=      5-min Rain = 0
KAM1 210443Z 18007KT 03/M06 A2996 RMK A01 T00251057  RH  055%=      5-min Rain = 0
KAM1 210444Z 19007KT 02/M06 A2996 RMK A01 T00241057  RH  055%=      5-min Rain = 0
KAM1 210445Z 19007KT 02/M06 A2996 RMK A01 T00241057  RH  055%=      5-min Rain = 0
KAM1 210446Z 19007KT 02/M06 A2996 RMK A01 T00231057  RH  055%=      5-min Rain = 0
KAM1 210447Z 19007KT 02/M06 A2996 RMK A01 T00231057  RH  055%=      5-min Rain = 0
KAM1 210448Z 19007KT 02/M06 A2996 RMK A01 T00221057  RH  056%=      5-min Rain = 0
KAM1 210449Z 19007KT 02/M06 A2997 RMK A01 T00231057  RH  056%=      5-min Rain = 0
KAM1 210450Z 19007KT 02/M06 A2997 RMK A01 T00221056  RH  056%=      5-min Rain = 0
KAM1 210451Z 19008KT 02/M06 A2996 RMK A01 T00221056  RH  056%=      5-min Rain = 0
KAM1 210452Z 19008KT 02/M06 A2996 RMK A01 T00231055  RH  056%=      5-min Rain = 0
KAM1 210453Z 19008KT 03/M05 A2996 RMK A01 T00251054  RH  056%=      5-min Rain = 0
KAM1 210454Z 19008KT 03/M05 A2996 RMK A01 T00271053  RH  056%=      5-min Rain = 0
KAM1 210455Z 19007KT 03/M05 A2996 RMK A01 T00281053  RH  055%=      5-min Rain = 0
KAM1 210456Z 19007KT 03/M05 A2996 RMK A01 T00281053  RH  055%=      5-min Rain = 0
KAM1 210457Z 19007KT 03/M05 A2996 RMK A01 T00291052  RH  055%=      5-min Rain = 0
KAM1 210458Z 19007KT 03/M05 A2996 RMK A01 T00291052  RH  055%=      5-min Rain = 0
KAM1 210459Z 19007KT 03/M05 A2996 RMK A01 T00301052  RH  055%=      5-min Rain = 0
KAM1 210500Z 19007KT 03/M05 A2996 RMK A01 T00301052  RH  055%=      5-min Rain = 0
KAM1 210501Z 19007KT 03/M05 A2996 RMK A01 T00301052  RH  055%=      5-min Rain = 0
KAM1 210502Z 19006KT 03/M05 A2996 RMK A01 T00301053  RH  055%=      5-min Rain = 0
KAM1 210503Z 19007KT 03/M05 A2996 RMK A01 T00301053  RH  054%=      5-min Rain = 0
KAM1 210504Z 19007KT 03/M05 A2996 RMK A01 T00311053  RH  054%=      5-min Rain = 0
KAM1 210505Z 18007KT 03/M05 A2996 RMK A01 T00311053  RH  054%=      5-min Rain = 0
KAM1 210506Z 18007KT 03/M05 A2996 RMK A01 T00311053  RH  054%=      5-min Rain = 0
KAM1 210507Z 18007KT 03/M05 A2996 RMK A01 T00311053  RH  054%=      5-min Rain = 0
KAM1 210508Z 18007KT 03/M05 A2996 RMK A01 T00321052  RH  054%=      5-min Rain = 0
KAM1 210509Z 18007KT 03/M05 A2996 RMK A01 T00331051  RH  054%=      5-min Rain = 0
KAM1 210510Z 18007KT 03/M05 A2996 RMK A01 T00341051  RH  054%=      5-min Rain = 0
KAM1 210511Z 18007KT 04/M05 A2996 RMK A01 T00351050  RH  054%=      5-min Rain = 0
KAM1 210512Z 18007KT 04/M05 A2996 RMK A01 T00361050  RH  053%=      5-min Rain = 0
KAM1 210513Z 18007KT 04/M05 A2996 RMK A01 T00371051  RH  053%=      5-min Rain = 0
KAM1 210514Z 18007KT 04/M05 A2996 RMK A01 T00371051  RH  053%=      5-min Rain = 0
KAM1 210515Z 18007KT 04/M05 A2996 RMK A01 T00371051  RH  053%=      5-min Rain = 0
KAM1 210516Z 18007KT 04/M05 A2996 RMK A01 T00371051  RH  053%=      5-min Rain = 0
KAM1 210517Z 18006KT 04/M05 A2996 RMK A01 T00361051  RH  053%=      5-min Rain = 0
KAM1 210518Z 18006KT 04/M05 A2996 RMK A01 T00351051  RH  053%=      5-min Rain = 0
KAM1 210519Z 18006KT 04/M05 A2996 RMK A01 T00351052  RH  053%=      5-min Rain = 0
KAM1 210520Z 18006KT 03/M05 A2996 RMK A01 T00341052  RH  053%=      5-min Rain = 0
KAM1 210521Z 18006KT 03/M05 A2996 RMK A01 T00341052  RH  053%=      5-min Rain = 0
KAM1 210522Z 18007KT 03/M05 A2996 RMK A01 T00331052  RH  053%=      5-min Rain = 0
KAM1 210523Z 18007KT 03/M05 A2996 RMK A01 T00331053  RH  053%=      5-min Rain = 0
KAM1 210524Z 18007KT 03/M05 A2996 RMK A01 T00321053  RH  054%=      5-min Rain = 0
KAM1 210525Z 18007KT 03/M05 A2996 RMK A01 T00311053  RH  054%=      5-min Rain = 0
KAM1 210526Z 18008KT 03/M05 A2996 RMK A01 T00301053  RH  054%=      5-min Rain = 0
KAM1 210527Z 18008KT 03/M05 A2996 RMK A01 T00301053  RH  054%=      5-min Rain = 0
KAM1 210528Z 18008KT 03/M05 A2996 RMK A01 T00291053  RH  055%=      5-min Rain = 0
KAM1 210529Z 18008KT 03/M05 A2996 RMK A01 T00291053  RH  055%=      5-min Rain = 0
KAM1 210530Z 18008KT 03/M05 A2996 RMK A01 T00281053  RH  055%=      5-min Rain = 0
KAM1 210531Z 18008KT 03/M05 A2996 RMK A01 T00281053  RH  055%=      5-min Rain = 0
KAM1 210532Z 18007KT 03/M05 A2996 RMK A01 T00271053  RH  056%=      5-min Rain = 0
KAM1 210533Z 18007KT 03/M05 A2996 RMK A01 T00271053  RH  056%=      5-min Rain = 0
KAM1 210534Z 19007KT 03/M05 A2996 RMK A01 T00271053  RH  056%=      5-min Rain = 0
KAM1 210535Z 19007KT 03/M05 A2996 RMK A01 T00271052  RH  056%=      5-min Rain = 0
KAM1 210536Z 19007KT 03/M05 A2996 RMK A01 T00271052  RH  056%=      5-min Rain = 0
KAM1 210537Z 19007KT 03/M05 A2996 RMK A01 T00271052  RH  056%=      5-min Rain = 0
KAM1 210538Z 19007KT 03/M05 A2996 RMK A01 T00271052  RH  056%=      5-min Rain = 0
KAM1 210539Z 19007KT 03/M05 A2996 RMK A01 T00261052  RH  056%=      5-min Rain = 0
KAM1 210540Z 20007KT 03/M05 A2996 RMK A01 T00261053  RH  056%=      5-min Rain = 0
KAM1 210541Z 20006KT 03/M05 A2996 RMK A01 T00261053  RH  056%=      5-min Rain = 0
KAM1 210542Z 20007KT 03/M05 A2996 RMK A01 T00261053  RH  056%=      5-min Rain = 0
KAM1 210543Z 19007KT 03/M05 A2996 RMK A01 T00261053  RH  056%=      5-min Rain = 0
KAM1 210544Z 19007KT 03/M05 A2996 RMK A01 T00251053  RH  056%=      5-min Rain = 0
KAM1 210545Z 19007KT 03/M05 A2996 RMK A01 T00251053  RH  056%=      5-min Rain = 0
KAM1 210546Z 19007KT 03/M05 A2996 RMK A01 T00251053  RH  057%=      5-min Rain = 0
KAM1 210547Z 19007KT 03/M05 A2996 RMK A01 T00251053  RH  057%=      5-min Rain = 0
KAM1 210548Z 19007KT 03/M05 A2996 RMK A01 T00251052  RH  057%=      5-min Rain = 0
KAM1 210549Z 19007KT 03/M05 A2996 RMK A01 T00251052  RH  057%=      5-min Rain = 0
KAM1 210550Z 20008KT 03/M05 A2996 RMK A01 T00251052  RH  057%=      5-min Rain = 0
KAM1 210551Z 20008KT 02/M05 A2996 RMK A01 T00241052  RH  057%=      5-min Rain = 0
KAM1 210552Z 20008KT 02/M05 A2996 RMK A01 T00241052  RH  057%=      5-min Rain = 0
KAM1 210553Z 20008KT 02/M05 A2996 RMK A01 T00241052  RH  057%=      5-min Rain = 0
KAM1 210554Z 20008KT 02/M05 A2996 RMK A01 T00241052  RH  057%=      5-min Rain = 0
KAM1 210555Z 20008KT 02/M05 A2996 RMK A01 T00241051  RH  057%=      5-min Rain = 0
KAM1 210556Z 20008KT 03/M05 A2995 RMK A01 T00251051  RH  057%=      5-min Rain = 0
KAM1 210557Z 20008KT 03/M05 A2995 RMK A01 T00251051  RH  057%=      5-min Rain = 0
KAM1 210558Z 20008KT 03/M05 A2995 RMK A01 T00251051  RH  057%=      5-min Rain = 0
KAM1 210559Z 20008KT 03/M05 A2995 RMK A01 T00261051  RH  057%=      5-min Rain = 0

Page generated in 0.0319 seconds.